K5BWX-2 Weather Reports


Display with metric or nautical units.
time (UTC)temp
F
wind
direction
speed
MPH
gust
MPH
rain 1hr
in
rain 24hr
in
rain mn
in
humidity
%
barometer
mb
20260904075842 80 233 2.0 3.0 0.00 0.00 0.00 72 1019.6
20260904075736 80 205 2.0 3.0 0.00 0.00 0.00 71 1019.7
20260904075722 80 205 2.0 3.0 0.00 0.00 0.00 71 1019.6
20260904075701 80 205 2.0 3.0 0.00 0.00 0.00 71 1019.7
20260904075526 80 207 2.0 3.0 0.00 0.00 0.00 71 1019.7
20260904075512 80 207 2.0 3.0 0.00 0.00 0.00 71 1019.6
20260904075238 80 207 2.0 3.0 0.00 0.00 0.00 71 1019.6
20260904075135 80 207 1.0 3.0 0.00 0.00 0.00 71 1019.6
20260904075040 80 207 1.0 3.0 0.00 0.00 0.00 71 1019.7
20260904074937 80 207 1.0 3.0 0.00 0.00 0.00 71 1019.6
20260904074837 79 207 1.0 3.0 0.00 0.00 0.00 71 1019.6
20260904074734 79 207 1.0 2.0 0.00 0.00 0.00 71 1019.7
20260904074633 79 205 1.0 2.0 0.00 0.00 0.00 71 1019.7
20260904074624 79 205 1.0 2.0 0.00 0.00 0.00 71 1019.7
20260904074609 79 205 1.0 2.0 0.00 0.00 0.00 71 1019.6
20260904074341 79 205 1.0 2.0 0.00 0.00 0.00 71 1019.6
20260904074227 80 205 1.0 2.0 0.00 0.00 0.00 71 1019.7
20260904074127 80 205 1.0 2.0 0.00 0.00 0.00 71 1019.7
20260904074025 80 205 1.0 2.0 0.00 0.00 0.00 71 1019.7
20260904073926 80 205 1.0 2.0 0.00 0.00 0.00 71 1019.7
20260904073824 80 205 1.0 3.0 0.00 0.00 0.00 71 1019.7
20260904073722 80 205 1.0 3.0 0.00 0.00 0.00 71 1019.7
20260904073641 80 205 1.0 3.0 0.00 0.00 0.00 71 1019.8
20260904073625 80 205 1.0 3.0 0.00 0.00 0.00 71 1019.6
20260904073601 80 205 1.0 3.0 0.00 0.00 0.00 71 1019.7
20260904073423 80 205 1.0 3.0 0.00 0.00 0.00 71 1019.7
20260904073417 80 189 1.0 3.0 0.00 0.00 0.00 71 1019.8
20260904073411 80 188 1.0 3.0 0.00 0.00 0.00 71 1019.8
20260904073320 80 205 1.0 3.0 0.00 0.00 0.00 71 1019.8
20260904073256 80 205 1.0 3.0 0.00 0.00 0.00 71 1019.8
20260904073238 80 205 1.0 3.0 0.00 0.00 0.00 71 1019.8
20260904073150 80 205 1.0 3.0 0.00 0.00 0.00 71 1019.8
20260904072830 80 189 1.0 3.0 0.00 0.00 0.00 71 1019.8
20260904072515 80 178 1.0 3.0 0.00 0.00 0.00 71 1019.8
20260904072413 80 206 1.0 6.0 0.00 0.00 0.00 71 1019.8
20260904072311 80 202 1.0 6.0 0.00 0.00 0.00 71 1019.8
20260904072212 80 202 1.0 6.0 0.00 0.00 0.00 71 1019.8
20260904072109 80 202 1.0 6.0 0.00 0.00 0.00 71 1019.8
20260904072008 80 184 1.0 6.0 0.00 0.00 0.00 71 1019.8
20260904071922 80 202 1.0 6.0 0.00 0.00 0.00 70 1019.8
20260904071911 80 185 1.0 6.0 0.00 0.00 0.00 71 1019.8
20260904071904 80 223 1.0 6.0 0.00 0.00 0.00 71 1019.8
20260904071844 80 202 1.0 6.0 0.00 0.00 0.00 70 1019.8
20260904071507 80 223 1.0 6.0 0.00 0.00 0.00 71 1019.8
20260904071405 80 192 1.0 4.0 0.00 0.00 0.00 71 1019.9
20260904071336 80 192 1.0 5.0 0.00 0.00 0.00 71 1019.9
20260904071324 80 192 1.0 4.0 0.00 0.00 0.00 71 1019.8
20260904071104 80 190 1.0 5.0 0.00 0.00 0.00 71 1019.9
20260904071003 80 197 1.0 5.0 0.00 0.00 0.00 71 1019.9
20260904070904 80 196 1.0 5.0 0.00 0.00 0.00 71 1019.9
20260904070804 80 194 1.0 5.0 0.00 0.00 0.00 71 1019.9
20260904070704 80 193 1.0 5.0 0.00 0.00 0.00 71 1019.9
20260904070604 80 193 1.0 5.0 0.00 0.00 0.00 71 1019.8
20260904070503 80 193 1.0 5.0 0.00 0.00 0.00 71 1019.9
20260904070401 80 193 1.0 5.0 0.00 0.00 0.00 70 1019.9
20260904070334 80 213 1.0 5.0 0.00 0.00 0.00 71 1019.9
20260904070328 80 215 1.0 5.0 0.00 0.00 0.00 71 1019.8
20260904070319 80 173 1.0 5.0 0.00 0.00 0.00 71 1019.9
20260904070255 80 217 1.0 4.0 0.00 0.00 0.00 71 1019.9
20260904070140 80 217 1.0 5.0 0.00 0.00 0.00 71 1019.9
20260904070127 80 217 1.0 5.0 0.00 0.00 0.00 71 1019.9
20260904065935 80 209 1.0 5.0 0.00 0.00 0.00 71 1019.9
20260904065611 80 184 1.0 5.0 0.00 0.00 0.00 71 1019.9
20260904065557 80 155 1.0 5.0 0.00 0.00 0.00 71 1019.9
20260904065535 80 177 1.0 5.0 0.00 0.00 0.00 71 1019.9
20260904065412 80 184 1.0 5.0 0.00 0.00 0.00 71 1019.9
20260904065148 80 163 1.0 5.0 0.00 0.00 0.00 72 1019.9
20260904065049 80 200 1.0 5.0 0.00 0.00 0.00 72 1019.9
20260904064949 80 233 1.0 4.0 0.00 0.00 0.00 72 1019.9
20260904064849 80 235 1.0 4.0 0.00 0.00 0.00 72 1019.9
20260904064747 80 183 1.0 4.0 0.00 0.00 0.00 72 1019.9
20260904064649 80 183 1.0 4.0 0.00 0.00 0.00 72 1019.9
20260904064545 80 181 1.0 4.0 0.00 0.00 0.00 72 1019.9
20260904064446 80 178 1.0 4.0 0.00 0.00 0.00 72 1019.9
20260904064343 80 182 1.0 4.0 0.00 0.00 0.00 72 1019.9
20260904064316 80 181 1.0 4.0 0.00 0.00 0.00 72 1019.9
20260904064304 80 182 1.0 4.0 0.00 0.00 0.00 72 1019.9
20260904064044 80 230 1.0 3.0 0.00 0.00 0.00 72 1019.9
20260904063939 80 196 1.0 3.0 0.00 0.00 0.00 72 1019.9
20260904063840 80 196 1.0 3.0 0.00 0.00 0.00 72 1020.1
20260904063739 80 196 1.0 3.0 0.00 0.00 0.00 72 1020.1
20260904063641 80 195 1.0 3.0 0.00 0.00 0.00 72 1019.9
20260904063539 80 195 1.0 3.0 0.00 0.00 0.00 72 1020.1
20260904063437 80 195 1.0 3.0 0.00 0.00 0.00 72 1020.1
20260904063337 80 195 1.0 4.0 0.00 0.00 0.00 72 1020.1
20260904063308 80 205 1.0 4.0 0.00 0.00 0.00 72 1020.1
20260904063258 80 205 1.0 4.0 0.00 0.00 0.00 72 1020.1
20260904063037 80 130 1.0 4.0 0.00 0.00 0.00 72 1020.1
20260904062935 80 130 1.0 4.0 0.00 0.00 0.00 72 1020.1
20260904062837 80 130 1.0 4.0 0.00 0.00 0.00 72 1020.2
20260904062733 80 123 1.0 4.0 0.00 0.00 0.00 72 1020.2
20260904062703 80 215 1.0 4.0 0.00 0.00 0.00 72 1020.2
20260904062652 80 215 1.0 4.0 0.00 0.00 0.00 72 1020.1
20260904062426 80 215 1.0 4.0 0.00 0.00 0.00 72 1020.2
20260904062325 80 225 1.0 3.0 0.00 0.00 0.00 72 1020.2
20260904062226 80 223 1.0 3.0 0.00 0.00 0.00 72 1020.2
20260904062201 80 208 1.0 3.0 0.00 0.00 0.00 72 1020.2
20260904062156 80 208 1.0 3.0 0.00 0.00 0.00 72 1020.2
20260904062144 80 128 1.0 3.0 0.00 0.00 0.00 72 1020.2
20260904062123 80 208 1.0 3.0 0.00 0.00 0.00 72 1020.2
20260904061957 80 208 1.0 3.0 0.00 0.00 0.00 72 1020.2
20260904061620 80 208 1.0 3.0 0.00 0.00 0.00 72 1020.2
20260904061517 80 207 1.0 2.0 0.00 0.00 0.00 72 1020.2
20260904061417 80 207 1.0 2.0 0.00 0.00 0.00 72 1020.2
20260904061315 80 207 1.0 2.0 0.00 0.00 0.00 72 1020.2
20260904061216 80 207 1.0 3.0 0.00 0.00 0.00 72 1020.2
20260904061114 80 203 1.0 3.0 0.00 0.00 0.00 72 1020.2
20260904061007 80 203 1.0 3.0 0.00 0.00 0.00 72 1020.2
20260904060905 80 221 1.0 3.0 0.00 0.00 0.00 72 1020.2
20260904060839 80 224 0.0 3.0 0.00 0.00 0.00 72 1020.3
20260904060827 80 231 0.0 3.0 0.00 0.00 0.00 72 1020.2
20260904060603 80 161 1.0 3.0 0.00 0.00 0.00 72 1020.2
20260904060503 80 161 1.0 5.0 0.00 0.00 0.00 73 1020.3
20260904060401 80 140 1.0 5.0 0.00 0.00 0.00 73 1020.3
20260904060301 80 140 1.0 5.0 0.00 0.00 0.00 72 1020.3
20260904060237 80 255 0.0 5.0 0.00 0.00 0.00 72 1020.3
20260904060232 80 161 1.0 5.0 0.00 0.00 0.00 72 1020.3
20260904060226 80 161 1.0 5.0 0.00 0.00 0.00 72 1020.3
20260904060212 80 205 0.0 5.0 0.00 0.00 0.00 72 1020.3
20260904060154 80 259 0.0 5.0 0.00 0.00 0.00 72 1020.3
20260904055655 80 161 1.0 5.0 0.00 0.00 0.00 73 1020.4
20260904055554 80 161 1.0 5.0 0.00 0.00 0.00 73 1020.4
20260904055545 80 252 0.0 3.0 0.00 0.00 0.00 72 1020.4
20260904055541 80 252 0.0 3.0 0.00 0.00 0.00 72 1020.4
20260904055518 80 252 0.0 3.0 0.00 0.00 0.00 72 1020.4
20260904055141 80 200 1.0 3.0 0.00 0.00 0.00 73 1020.4
20260904055052 80 235 1.0 3.0 0.00 0.00 0.00 73 1020.4
20260904055042 80 200 1.0 3.0 0.00 0.00 0.00 73 1020.4
20260904055034 80 235 1.0 5.0 0.00 0.00 0.00 73 1020.4
20260904055016 80 205 1.0 3.0 0.00 0.00 0.00 73 1020.5
20260904054633 80 235 1.0 5.0 0.00 0.00 0.00 73 1020.4
20260904054537 80 196 1.0 5.0 0.00 0.00 0.00 73 1020.4
20260904054425 80 196 1.0 5.0 0.00 0.00 0.00 73 1020.4
20260904054358 80 196 1.0 5.0 0.00 0.00 0.00 73 1020.4
20260904054348 80 196 1.0 5.0 0.00 0.00 0.00 73 1020.5
20260904054125 80 211 1.0 5.0 0.00 0.00 0.00 73 1020.4
20260904054026 80 211 1.0 5.0 0.00 0.00 0.00 73 1020.4
20260904053915 80 105 1.0 5.0 0.00 0.00 0.00 73 1020.4
20260904053814 80 177 1.0 5.0 0.00 0.00 0.00 73 1020.4
20260904053716 80 227 1.0 3.0 0.00 0.00 0.00 73 1020.4
20260904053615 80 227 1.0 3.0 0.00 0.00 0.00 73 1020.4
20260904053515 80 227 1.0 3.0 0.00 0.00 0.00 73 1020.5
20260904053414 80 227 1.0 4.0 0.00 0.00 0.00 73 1020.4
20260904053314 80 232 1.0 4.0 0.00 0.00 0.00 73 1020.5
20260904053212 80 232 1.0 4.0 0.00 0.00 0.00 73 1020.5
20260904053112 80 232 1.0 4.0 0.00 0.00 0.00 73 1020.5
20260904053010 80 232 1.0 4.0 0.00 0.00 0.00 73 1020.5
20260904052905 80 232 1.0 4.0 0.00 0.00 0.00 73 1020.5
20260904052805 80 232 1.0 4.0 0.00 0.00 0.00 73 1020.5
20260904052705 80 190 1.0 4.0 0.00 0.00 0.00 73 1020.5
20260904052610 80 196 1.0 4.0 0.00 0.00 0.00 73 1020.5
20260904052504 80 196 1.0 4.0 0.00 0.00 0.00 73 1020.5
20260904052353 80 183 1.0 3.0 0.00 0.00 0.00 73 1020.5
20260904052255 80 190 1.0 3.0 0.00 0.00 0.00 73 1020.6
20260904052153 80 190 1.0 3.0 0.00 0.00 0.00 73 1020.6
20260904052051 80 190 1.0 3.0 0.00 0.00 0.00 73 1020.6
20260904051951 80 219 1.0 3.0 0.00 0.00 0.00 73 1020.6
20260904051919 80 219 1.0 3.0 0.00 0.00 0.00 73 1020.5
20260904051909 80 220 1.0 3.0 0.00 0.00 0.00 73 1020.5
20260904051647 80 219 1.0 3.0 0.00 0.00 0.00 73 1020.6
20260904051555 80 131 1.0 3.0 0.00 0.00 0.00 73 1020.5
20260904051444 80 131 1.0 3.0 0.00 0.00 0.00 72 1020.6
20260904051339 80 203 1.0 3.0 0.00 0.00 0.00 73 1020.5
20260904051240 80 214 1.0 3.0 0.00 0.00 0.00 72 1020.6
20260904051139 80 215 1.0 3.0 0.00 0.00 0.00 72 1020.6
20260904051116 80 215 1.0 3.0 0.00 0.00 0.00 72 1020.5
20260904051107 80 215 1.0 3.0 0.00 0.00 0.00 72 1020.6
20260904050905 80 187 1.0 3.0 0.00 0.00 0.00 72 1020.6
20260904050853 80 194 1.0 3.0 0.00 0.00 0.00 72 1020.5
20260904050629 80 215 1.0 3.0 0.00 0.00 0.00 72 1020.6
20260904050605 80 215 1.0 4.0 0.00 0.00 0.00 72 1020.6
20260904050556 80 215 1.0 3.0 0.00 0.00 0.00 72 1020.6
20260904050325 80 215 1.0 4.0 0.00 0.00 0.00 72 1020.7
20260904050223 80 215 1.0 4.0 0.00 0.00 0.00 72 1020.6
20260904050158 80 238 1.0 4.0 0.00 0.00 0.00 72 1020.6
20260904050147 80 238 1.0 4.0 0.00 0.00 0.00 72 1020.7
20260904045955 80 238 1.0 4.0 0.00 0.00 0.00 72 1020.6
20260904045944 80 238 1.0 4.0 0.00 0.00 0.00 72 1020.7
20260904045716 80 171 1.0 6.0 0.00 0.00 0.00 72 1020.7
20260904045618 80 169 1.0 6.0 0.00 0.00 0.00 72 1020.6
20260904045517 80 169 1.0 6.0 0.00 0.00 0.00 72 1020.7
20260904045417 80 167 1.0 6.0 0.00 0.00 0.00 72 1020.7
20260904045307 80 167 1.0 6.0 0.00 0.00 0.00 72 1020.6
20260904045206 81 164 1.0 6.0 0.00 0.00 0.00 72 1020.7
20260904045106 81 164 1.0 6.0 0.00 0.00 0.00 72 1020.7
20260904045034 81 164 1.0 6.0 0.00 0.00 0.00 72 1020.7
20260904045025 81 164 1.0 6.0 0.00 0.00 0.00 72 1020.6
20260904044804 81 194 1.0 5.0 0.00 0.00 0.00 71 1020.6
20260904044700 81 231 1.0 5.0 0.00 0.00 0.00 71 1020.7
20260904044601 81 163 1.0 5.0 0.00 0.00 0.00 71 1020.7
20260904044500 81 163 1.0 5.0 0.00 0.00 0.00 71 1020.6
20260904044357 81 163 1.0 5.0 0.00 0.00 0.00 71 1020.7
20260904044253 81 163 1.0 5.0 0.00 0.00 0.00 71 1020.7
20260904044222 81 212 1.0 5.0 0.00 0.00 0.00 71 1020.7
20260904044211 81 189 1.0 5.0 0.00 0.00 0.00 71 1020.6
20260904043951 81 212 1.0 5.0 0.00 0.00 0.00 70 1020.6
20260904043852 81 212 2.0 5.0 0.00 0.00 0.00 70 1020.7
20260904043738 81 212 1.0 5.0 0.00 0.00 0.00 70 1020.7
20260904043638 81 212 1.0 5.0 0.00 0.00 0.00 70 1020.7
20260904043538 82 212 1.0 5.0 0.00 0.00 0.00 70 1020.6
20260904043440 82 212 1.0 5.0 0.00 0.00 0.00 70 1020.6
20260904043338 82 193 1.0 5.0 0.00 0.00 0.00 70 1020.6
20260904043234 82 186 1.0 4.0 0.00 0.00 0.00 69 1020.6
20260904043133 82 190 1.0 5.0 0.00 0.00 0.00 69 1020.7
20260904043033 82 184 1.0 5.0 0.00 0.00 0.00 69 1020.6
20260904042956 82 205 2.0 5.0 0.00 0.00 0.00 68 1020.7
20260904042942 82 107 1.0 5.0 0.00 0.00 0.00 68 1020.7
20260904042933 82 199 1.0 5.0 0.00 0.00 0.00 69 1020.7
20260904042907 82 207 1.0 5.0 0.00 0.00 0.00 69 1020.7
20260904042600 82 224 2.0 6.0 0.00 0.00 0.00 68 1020.7
20260904042549 82 184 2.0 6.0 0.00 0.00 0.00 68 1020.7
20260904042325 82 235 2.0 6.0 0.00 0.00 0.00 68 1020.8
20260904042209 82 196 1.0 6.0 0.00 0.00 0.00 68 1020.7
20260904042110 82 194 1.0 6.0 0.00 0.00 0.00 68 1020.7
20260904042043 82 203 1.0 6.0 0.00 0.00 0.00 68 1020.7
20260904042032 82 180 1.0 6.0 0.00 0.00 0.00 68 1020.7
20260904041811 82 188 1.0 6.0 0.00 0.00 0.00 68 1020.7
20260904041713 82 196 1.0 6.0 0.00 0.00 0.00 68 1020.7
20260904041646 82 146 1.0 5.0 0.00 0.00 0.00 68 1020.8
20260904041634 82 204 1.0 5.0 0.00 0.00 0.00 68 1020.7
20260904041438 82 217 2.0 5.0 0.00 0.00 0.00 68 1020.8
20260904041428 82 146 1.0 5.0 0.00 0.00 0.00 68 1020.7
20260904041200 82 204 2.0 5.0 0.00 0.00 0.00 68 1020.7
20260904041102 82 204 2.0 5.0 0.00 0.00 0.00 68 1020.8
20260904041000 82 203 2.0 5.0 0.00 0.00 0.00 68 1020.8
20260904040859 82 176 2.0 6.0 0.00 0.00 0.00 68 1020.8
20260904040759 82 195 2.0 6.0 0.00 0.00 0.00 68 1020.8
20260904040654 82 195 2.0 6.0 0.00 0.00 0.00 68 1020.9
20260904040554 82 191 2.0 6.0 0.00 0.00 0.00 69 1020.8
20260904040454 82 224 2.0 6.0 0.00 0.00 0.00 69 1020.8
20260904040353 82 168 2.0 6.0 0.00 0.00 0.00 69 1020.9
20260904040253 82 167 2.0 6.0 0.00 0.00 0.00 69 1020.8
20260904040157 81 146 2.0 6.0 0.00 0.00 0.00 69 1020.9
20260904040050 81 150 2.0 6.0 0.00 0.00 0.00 69 1020.9
20260904035950 81 148 2.0 6.0 0.00 0.00 0.00 69 1020.9
20260904035905 81 210 2.0 4.0 0.00 0.00 0.00 69 1020.9
20260904035751 81 184 2.0 4.0 0.00 0.00 0.00 69 1020.9
20260904035658 81 227 2.0 4.0 0.00 0.00 0.00 69 1020.9
20260904035548 81 155 1.0 4.0 0.00 0.00 0.00 69 1020.9
20260904035449 81 165 1.0 4.0 0.00 0.00 0.00 69 1021.0
20260904035348 81 165 1.0 4.0 0.00 0.00 0.00 69 1021.0
20260904035248 81 158 1.0 4.0 0.00 0.00 0.00 70 1021.0
20260904035150 81 207 1.0 4.0 0.00 0.00 0.00 70 1021.0
20260904035056 81 156 1.0 4.0 0.00 0.00 0.00 70 1020.9
20260904034946 81 178 1.0 5.0 0.00 0.00 0.00 70 1021.0
20260904034847 81 126 1.0 5.0 0.00 0.00 0.00 69 1021.1
20260904034747 81 126 1.0 5.0 0.00 0.00 0.00 69 1021.0
20260904034646 81 200 1.0 5.0 0.00 0.00 0.00 69 1021.1
20260904034546 81 200 1.0 5.0 0.00 0.00 0.00 69 1021.1
20260904034447 81 203 1.0 5.0 0.00 0.00 0.00 69 1021.1
20260904034341 81 202 1.0 5.0 0.00 0.00 0.00 69 1021.1
20260904034241 81 208 1.0 5.0 0.00 0.00 0.00 69 1021.1
20260904034203 81 157 1.0 3.0 0.00 0.00 0.00 69 1021.1
20260904034159 81 135 1.0 3.0 0.00 0.00 0.00 69 1021.0
20260904034146 81 159 1.0 5.0 0.00 0.00 0.00 69 1021.0
20260904034122 81 161 1.0 5.0 0.00 0.00 0.00 69 1021.0
20260904033748 81 188 1.0 3.0 0.00 0.00 0.00 69 1021.1
20260904033636 81 188 1.0 3.0 0.00 0.00 0.00 68 1021.1
20260904033534 81 199 1.0 4.0 0.00 0.00 0.00 68 1021.1
20260904033435 81 215 1.0 4.0 0.00 0.00 0.00 68 1021.0
20260904033336 81 221 1.0 4.0 0.00 0.00 0.00 68 1021.0
20260904033235 81 225 1.0 4.0 0.00 0.00 0.00 68 1021.1
20260904033136 81 173 1.0 4.0 0.00 0.00 0.00 68 1021.1
20260904033035 81 88 1.0 4.0 0.00 0.00 0.00 68 1021.1
20260904032934 81 113 1.0 4.0 0.00 0.00 0.00 68 1021.1
20260904032836 81 101 1.0 4.0 0.00 0.00 0.00 69 1021.2
20260904032734 81 101 1.0 4.0 0.00 0.00 0.00 68 1021.1
20260904032636 81 183 1.0 4.0 0.00 0.00 0.00 68 1021.1
20260904032534 81 182 1.0 3.0 0.00 0.00 0.00 68 1021.1
20260904032509 81 113 0.0 3.0 0.00 0.00 0.00 68 1021.1
20260904032457 81 192 1.0 3.0 0.00 0.00 0.00 68 1021.2
20260904032317 82 177 0.0 3.0 0.00 0.00 0.00 68 1021.2
20260904032306 81 186 0.0 3.0 0.00 0.00 0.00 68 1021.1
20260904032030 82 176 1.0 3.0 0.00 0.00 0.00 67 1021.1
20260904031932 82 155 1.0 3.0 0.00 0.00 0.00 67 1021.1
20260904031906 82 152 1.0 3.0 0.00 0.00 0.00 67 1021.1
20260904031856 82 155 1.0 3.0 0.00 0.00 0.00 67 1021.1
20260904031629 82 152 1.0 6.0 0.00 0.00 0.00 67 1021.2
20260904031524 82 153 1.0 6.0 0.00 0.00 0.00 67 1021.1
20260904031422 82 96 1.0 6.0 0.00 0.00 0.00 67 1021.1
20260904031333 82 96 1.0 6.0 0.00 0.00 0.00 67 1021.1
20260904031224 82 96 1.0 6.0 0.00 0.00 0.00 67 1021.2
20260904031155 82 96 1.0 6.0 0.00 0.00 0.00 66 1021.2
20260904031145 82 96 1.0 6.0 0.00 0.00 0.00 66 1021.2
20260904030922 82 96 1.0 6.0 0.00 0.00 0.00 66 1021.3
20260904030821 82 135 1.0 6.0 0.00 0.00 0.00 66 1021.2
20260904030756 82 99 1.0 6.0 0.00 0.00 0.00 66 1021.3
20260904030747 82 136 1.0 6.0 0.00 0.00 0.00 66 1021.2
20260904030553 82 133 1.0 4.0 0.00 0.00 0.00 66 1021.3
20260904030543 82 119 1.0 4.0 0.00 0.00 0.00 66 1021.2
20260904030347 82 97 1.0 4.0 0.00 0.00 0.00 66 1021.2
20260904030340 82 159 1.0 4.0 0.00 0.00 0.00 66 1021.2
20260904030326 82 132 1.0 4.0 0.00 0.00 0.00 66 1021.2
20260904030303 82 90 1.0 4.0 0.00 0.00 0.00 66 1021.2
20260904025919 82 192 1.0 4.0 0.00 0.00 0.00 66 1021.2
20260904025822 82 186 1.0 4.0 0.00 0.00 0.00 66 1021.2
20260904025720 82 119 1.0 4.0 0.00 0.00 0.00 66 1021.2
20260904025653 82 176 1.0 4.0 0.00 0.00 0.00 66 1021.3
20260904025642 82 149 1.0 4.0 0.00 0.00 0.00 66 1021.2
20260904025451 82 99 1.0 3.0 0.00 0.00 0.00 66 1021.3
20260904025439 82 107 1.0 3.0 0.00 0.00 0.00 66 1021.3
20260904025306 82 129 0.0 2.0 0.00 0.00 0.00 65 1021.3
20260904025250 82 128 0.0 3.0 0.00 0.00 0.00 66 1021.2
20260904025019 82 129 0.0 2.0 0.00 0.00 0.00 66 1021.3
20260904024919 82 129 0.0 2.0 0.00 0.00 0.00 66 1021.3
20260904024821 82 129 0.0 2.0 0.00 0.00 0.00 65 1021.2
20260904024721 82 129 0.0 2.0 0.00 0.00 0.00 65 1021.2
20260904024621 82 129 0.0 2.0 0.00 0.00 0.00 65 1021.2
20260904024520 82 129 0.0 2.0 0.00 0.00 0.00 65 1021.3
20260904024455 82 128 0.0 2.0 0.00 0.00 0.00 65 1021.3
20260904024444 82 128 0.0 2.0 0.00 0.00 0.00 65 1021.3
20260904024249 82 128 0.0 2.0 0.00 0.00 0.00 65 1021.3
20260904024238 82 128 0.0 2.0 0.00 0.00 0.00 65 1021.3
20260904024016 82 127 0.0 1.0 0.00 0.00 0.00 65 1021.3
20260904023913 82 127 0.0 1.0 0.00 0.00 0.00 65 1021.3
20260904023813 82 127 0.0 1.0 0.00 0.00 0.00 65 1021.3
20260904023711 82 127 0.0 1.0 0.00 0.00 0.00 65 1021.3
20260904023641 82 127 0.0 1.0 0.00 0.00 0.00 65 1021.2
20260904023631 82 127 0.0 1.0 0.00 0.00 0.00 65 1021.3
20260904023404 82 127 0.0 2.0 0.00 0.00 0.00 65 1021.2
20260904023305 82 126 0.0 3.0 0.00 0.00 0.00 65 1021.2
20260904023203 82 126 0.0 3.0 0.00 0.00 0.00 65 1021.2
20260904023104 82 126 0.0 3.0 0.00 0.00 0.00 65 1021.1
20260904023005 82 221 0.0 3.0 0.00 0.00 0.00 65 1021.1
20260904022904 82 221 0.0 3.0 0.00 0.00 0.00 65 1021.2
20260904022803 82 190 0.0 3.0 0.00 0.00 0.00 65 1021.2
20260904022703 82 190 0.0 3.0 0.00 0.00 0.00 65 1021.2
20260904022601 82 191 0.0 3.0 0.00 0.00 0.00 65 1021.1
20260904022459 82 191 0.0 3.0 0.00 0.00 0.00 65 1021.2
20260904022355 82 202 0.0 1.0 0.00 0.00 0.00 65 1021.2
20260904022321 82 202 0.0 2.0 0.00 0.00 0.00 65 1021.2
20260904022312 82 202 0.0 2.0 0.00 0.00 0.00 65 1021.2
20260904022050 82 202 0.0 2.0 0.00 0.00 0.00 65 1021.1
20260904021951 82 202 0.0 2.0 0.00 0.00 0.00 65 1021.1
20260904021921 82 202 0.0 2.0 0.00 0.00 0.00 65 1021.0
20260904021911 82 202 0.0 2.0 0.00 0.00 0.00 65 1021.1
20260904021649 82 202 0.0 2.0 0.00 0.00 0.00 65 1021.0
20260904021548 82 202 0.0 2.0 0.00 0.00 0.00 65 1021.1
20260904021448 82 202 0.0 2.0 0.00 0.00 0.00 65 1021.1
20260904021346 82 202 0.0 2.0 0.00 0.00 0.00 65 1021.0
20260904021243 82 202 0.0 2.0 0.00 0.00 0.00 65 1021.0
20260904021144 82 202 0.0 2.0 0.00 0.00 0.00 65 1021.0
20260904021042 82 202 0.0 2.0 0.00 0.00 0.00 65 1021.0
20260904020939 82 202 0.0 2.0 0.00 0.00 0.00 65 1021.1
20260904020841 82 202 0.0 2.0 0.00 0.00 0.00 65 1021.1
20260904020738 82 202 0.0 2.0 0.00 0.00 0.00 65 1021.0
20260904020637 82 202 0.0 2.0 0.00 0.00 0.00 65 1021.0
20260904020537 82 202 0.0 2.0 0.00 0.00 0.00 65 1021.1
20260904020435 82 202 0.0 2.0 0.00 0.00 0.00 65 1021.0
20260904020337 82 202 0.0 2.0 0.00 0.00 0.00 65 1021.0
20260904020235 82 202 0.0 2.0 0.00 0.00 0.00 65 1020.9
20260904020134 82 202 0.0 2.0 0.00 0.00 0.00 65 1020.9
20260904020034 82 202 0.0 2.0 0.00 0.00 0.00 65 1021.0
20260904015934 82 202 0.0 2.0 0.00 0.00 0.00 65 1020.9
20260904015836 82 202 0.0 2.0 0.00 0.00 0.00 65 1020.9
20260904015734 82 202 0.0 3.0 0.00 0.00 0.00 65 1020.9
20260904015634 82 202 1.0 3.0 0.00 0.00 0.00 65 1020.9
20260904015629 82 202 1.0 3.0 0.00 0.00 0.00 65 1020.8
20260904015621 82 202 1.0 3.0 0.00 0.00 0.00 65 1020.9
20260904015605 82 202 1.0 3.0 0.00 0.00 0.00 65 1020.9
20260904015431 82 202 1.0 3.0 0.00 0.00 0.00 65 1020.9
20260904015318 82 202 1.0 4.0 0.00 0.00 0.00 65 1020.8
20260904015306 82 202 1.0 3.0 0.00 0.00 0.00 65 1020.8
20260904015244 82 202 1.0 3.0 0.00 0.00 0.00 65 1020.8
20260904014832 82 202 1.0 4.0 0.00 0.00 0.00 65 1020.8
20260904014815 82 196 1.0 4.0 0.00 0.00 0.00 65 1020.8
20260904014801 82 196 1.0 4.0 0.00 0.00 0.00 65 1020.8
20260904014616 82 161 1.0 4.0 0.00 0.00 0.00 65 1020.8
20260904014602 82 196 1.0 4.0 0.00 0.00 0.00 65 1020.8
20260904014330 82 161 1.0 4.0 0.00 0.00 0.00 65 1020.7
20260904014237 82 161 1.0 4.0 0.00 0.00 0.00 65 1020.7
20260904014129 82 161 1.0 4.0 0.00 0.00 0.00 65 1020.8
20260904014031 82 161 1.0 4.0 0.00 0.00 0.00 65 1020.7
20260904013931 82 160 1.0 4.0 0.00 0.00 0.00 65 1020.7
20260904013830 82 160 1.0 4.0 0.00 0.00 0.00 65 1020.6
20260904013730 82 160 1.0 4.0 0.00 0.00 0.00 65 1020.6
20260904013631 83 136 1.0 3.0 0.00 0.00 0.00 64 1020.6
20260904013518 82 136 1.0 3.0 0.00 0.00 0.00 64 1020.6
20260904013418 82 136 1.0 3.0 0.00 0.00 0.00 64 1020.6
20260904013350 82 135 1.0 2.0 0.00 0.00 0.00 64 1020.6
20260904013339 82 135 1.0 2.0 0.00 0.00 0.00 64 1020.6
20260904013147 82 135 1.0 3.0 0.00 0.00 0.00 64 1020.6
20260904013136 82 135 1.0 2.0 0.00 0.00 0.00 64 1020.6
20260904012917 82 135 0.0 3.0 0.00 0.00 0.00 64 1020.7
20260904012818 82 133 0.0 3.0 0.00 0.00 0.00 65 1020.6
20260904012718 82 133 0.0 3.0 0.00 0.00 0.00 65 1020.6
20260904012618 82 209 0.0 3.0 0.00 0.00 0.00 65 1020.6
20260904012518 82 198 0.0 3.0 0.00 0.00 0.00 65 1020.6
20260904012418 82 197 0.0 3.0 0.00 0.00 0.00 65 1020.6
20260904012318 82 199 0.0 3.0 0.00 0.00 0.00 65 1020.6
20260904012218 82 199 0.0 4.0 0.00 0.00 0.00 65 1020.7
20260904012119 82 198 0.0 4.0 0.00 0.00 0.00 65 1020.6
20260904012056 82 172 0.0 4.0 0.00 0.00 0.00 65 1020.6
20260904012048 82 132 0.0 4.0 0.00 0.00 0.00 65 1020.6
20260904011818 82 172 0.0 4.0 0.00 0.00 0.00 65 1020.6
20260904011741 82 178 0.0 4.0 0.00 0.00 0.00 65 1020.6
20260904011732 82 178 0.0 4.0 0.00 0.00 0.00 65 1020.6
20260904011518 82 177 0.0 4.0 0.00 0.00 0.00 65 1020.6
20260904011413 83 178 0.0 4.0 0.00 0.00 0.00 65 1020.6
20260904011347 82 168 0.0 2.0 0.00 0.00 0.00 65 1020.6
20260904011338 82 178 0.0 4.0 0.00 0.00 0.00 65 1020.6
20260904011115 83 168 0.0 2.0 0.00 0.00 0.00 65 1020.6
20260904011014 82 168 0.0 2.0 0.00 0.00 0.00 65 1020.5
20260904010916 83 168 0.0 2.0 0.00 0.00 0.00 64 1020.6
20260904010815 83 200 0.0 2.0 0.00 0.00 0.00 64 1020.5
20260904010751 83 202 0.0 2.0 0.00 0.00 0.00 64 1020.5
20260904010741 83 200 0.0 2.0 0.00 0.00 0.00 64 1020.5
20260904010513 83 202 0.0 2.0 0.00 0.00 0.00 64 1020.5
20260904010414 83 202 0.0 2.0 0.00 0.00 0.00 64 1020.5
20260904010319 83 202 0.0 2.0 0.00 0.00 0.00 64 1020.5
20260904010215 83 202 0.0 2.0 0.00 0.00 0.00 64 1020.5
20260904010115 83 202 0.0 3.0 0.00 0.00 0.00 64 1020.4
20260904010052 83 202 0.0 3.0 0.00 0.00 0.00 64 1020.4
20260904010049 83 202 0.0 3.0 0.00 0.00 0.00 64 1020.4
20260904010036 83 202 0.0 3.0 0.00 0.00 0.00 64 1020.4
20260904010016 83 202 0.0 3.0 0.00 0.00 0.00 64 1020.4
20260904005849 83 202 0.0 3.0 0.00 0.00 0.00 64 1020.4
20260904005516 83 202 0.0 3.0 0.00 0.00 0.00 64 1020.4
20260904005419 83 202 0.0 3.0 0.00 0.00 0.00 64 1020.3
20260904005315 83 200 0.0 3.0 0.00 0.00 0.00 64 1020.4
20260904005213 83 200 0.0 3.0 0.00 0.00 0.00 64 1020.3
20260904005114 83 200 0.0 3.0 0.00 0.00 0.00 64 1020.3
20260904005014 83 200 0.0 3.0 0.00 0.00 0.00 64 1020.3
20260904004915 83 200 0.0 3.0 0.00 0.00 0.00 63 1020.3
20260904004813 83 200 0.0 3.0 0.00 0.00 0.00 64 1020.3
20260904004715 83 200 0.0 3.0 0.00 0.00 0.00 63 1020.3
20260904004613 83 201 0.0 1.0 0.00 0.00 0.00 64 1020.3
20260904004514 83 201 0.0 2.0 0.00 0.00 0.00 64 1020.3
20260904004414 83 201 0.0 2.0 0.00 0.00 0.00 63 1020.3
20260904004345 83 201 0.0 2.0 0.00 0.00 0.00 63 1020.3
20260904004335 83 201 0.0 2.0 0.00 0.00 0.00 64 1020.3
20260904004114 83 201 0.0 2.0 0.00 0.00 0.00 63 1020.3
20260904004050 83 201 0.0 2.0 0.00 0.00 0.00 63 1020.3
20260904004039 83 201 0.0 2.0 0.00 0.00 0.00 63 1020.3
20260904003813 83 201 0.0 2.0 0.00 0.00 0.00 63 1020.3
20260904003715 83 201 0.0 2.0 0.00 0.00 0.00 64 1020.3
20260904003615 83 201 0.0 2.0 0.00 0.00 0.00 64 1020.3
20260904003553 83 201 0.0 2.0 0.00 0.00 0.00 64 1020.2
20260904003541 83 201 0.0 2.0 0.00 0.00 0.00 64 1020.2
20260904003313 83 201 0.0 2.0 0.00 0.00 0.00 64 1020.2
20260904003213 84 201 0.0 2.0 0.00 0.00 0.00 63 1020.2
20260904003113 84 201 0.0 2.0 0.00 0.00 0.00 63 1019.9
20260904003045 84 200 0.0 3.0 0.00 0.00 0.00 63 1019.9
20260904003034 84 201 0.0 2.0 0.00 0.00 0.00 63 1019.9
20260904002813 84 200 0.0 3.0 0.00 0.00 0.00 63 1019.9
20260904002711 84 199 0.0 3.0 0.00 0.00 0.00 63 1019.9
20260904002611 84 199 0.0 3.0 0.00 0.00 0.00 63 1019.9
20260904002543 84 200 0.0 3.0 0.00 0.00 0.00 63 1019.9
20260904002537 84 200 0.0 3.0 0.00 0.00 0.00 63 1019.9
20260904002523 84 199 0.0 3.0 0.00 0.00 0.00 63 1019.9
20260904002501 84 200 0.0 3.0 0.00 0.00 0.00 63 1019.9
20260904002034 84 175 0.0 2.0 0.00 0.00 0.00 63 1019.9
20260904002024 84 193 0.0 3.0 0.00 0.00 0.00 63 1019.9
20260904001802 84 175 0.0 2.0 0.00 0.00 0.00 62 1019.9
20260904001655 84 175 0.0 2.0 0.00 0.00 0.00 62 1019.9
20260904001552 84 175 0.0 3.0 0.00 0.00 0.00 62 1019.9
20260904001524 84 180 0.0 3.0 0.00 0.00 0.00 62 1019.9
20260904001513 84 180 0.0 3.0 0.00 0.00 0.00 62 1019.9
20260904001247 84 180 0.0 3.0 0.00 0.00 0.00 62 1019.9
20260904001139 84 180 0.0 3.0 0.00 0.00 0.00 62 1019.9
20260904001041 84 180 1.0 3.0 0.00 0.00 0.00 62 1019.8
20260904000939 84 180 1.0 3.0 0.00 0.00 0.00 62 1019.9
20260904000913 85 180 1.0 3.0 0.00 0.00 0.00 62 1019.9
20260904000903 84 180 1.0 3.0 0.00 0.00 0.00 62 1019.8
20260904000640 85 180 1.0 3.0 0.00 0.00 0.00 62 1019.9
20260904000539 85 178 1.0 3.0 0.00 0.00 0.00 62 1019.9
20260904000440 85 178 1.0 3.0 0.00 0.00 0.00 62 1019.9
20260904000337 85 178 1.0 3.0 0.00 0.00 0.00 62 1019.9
20260904000234 85 178 1.0 3.0 0.00 0.00 0.00 62 1019.9
20260904000127 85 178 1.0 3.0 0.00 0.00 0.00 62 1019.9
20260904000023 85 178 1.0 3.0 0.00 0.00 0.00 62 1019.9
20260903235923 85 178 1.0 3.0 0.00 0.00 0.00 61 1019.9
20260903235821 85 178 1.0 3.0 0.00 0.00 0.00 61 1019.9
20260903235720 85 178 1.0 3.0 0.00 0.00 0.00 61 1019.9
20260903235616 85 178 1.0 4.0 0.00 0.00 0.00 61 1020.1
20260903235547 85 178 1.0 4.0 0.00 0.00 0.00 61 1020.1
20260903235536 85 178 1.0 4.0 0.00 0.00 0.00 61 1020.1
20260903235313 85 178 0.0 4.0 0.00 0.00 0.00 61 1020.1
20260903235212 85 167 0.0 4.0 0.00 0.00 0.00 61 1020.1
20260903235112 85 167 0.0 4.0 0.00 0.00 0.00 61 1020.1
20260903235009 85 165 0.0 4.0 0.00 0.00 0.00 60 1020.1
20260903234910 85 165 1.0 4.0 0.00 0.00 0.00 61 1019.9
20260903234807 85 165 0.0 4.0 0.00 0.00 0.00 60 1020.1
20260903234706 85 165 0.0 4.0 0.00 0.00 0.00 61 1019.9
20260903234551 85 174 0.0 3.0 0.00 0.00 0.00 61 1019.9
20260903234451 85 88 0.0 3.0 0.00 0.00 0.00 60 1019.9
20260903234359 85 88 0.0 3.0 0.00 0.00 0.00 61 1019.9
20260903234249 85 88 1.0 3.0 0.00 0.00 0.00 61 1019.9
20260903234148 85 88 1.0 3.0 0.00 0.00 0.00 61 1019.9
20260903234051 85 87 1.0 3.0 0.00 0.00 0.00 61 1019.9
20260903233952 85 86 1.0 4.0 0.00 0.00 0.00 61 1019.9
20260903233846 85 188 1.0 4.0 0.00 0.00 0.00 60 1019.9
20260903233743 85 188 1.0 4.0 0.00 0.00 0.00 61 1019.8
20260903233641 85 186 1.0 4.0 0.00 0.00 0.00 61 1019.9
20260903233613 85 219 1.0 4.0 0.00 0.00 0.00 60 1019.9
20260903233602 85 186 1.0 4.0 0.00 0.00 0.00 61 1019.8
20260903233337 85 219 1.0 4.0 0.00 0.00 0.00 61 1019.9
20260903233237 86 219 1.0 4.0 0.00 0.00 0.00 61 1019.8
20260903233136 86 219 1.0 4.0 0.00 0.00 0.00 61 1019.9
20260903233021 86 192 1.0 4.0 0.00 0.00 0.00 60 1019.9
20260903232922 86 192 1.0 2.0 0.00 0.00 0.00 61 1019.9
20260903232821 86 192 1.0 2.0 0.00 0.00 0.00 61 1019.9
20260903232723 86 194 1.0 2.0 0.00 0.00 0.00 60 1019.9
20260903232652 86 187 1.0 6.0 0.00 0.00 0.00 60 1019.7
20260903232638 86 149 1.0 3.0 0.00 0.00 0.00 60 1019.7
20260903232420 86 187 1.0 6.0 0.00 0.00 0.00 60 1019.8
20260903232318 86 187 0.0 6.0 0.00 0.00 0.00 60 1019.7
20260903232215 87 205 1.0 6.0 0.00 0.00 0.00 59 1019.7
20260903232117 87 205 1.0 6.0 0.00 0.00 0.00 60 1019.7
20260903232012 87 205 1.0 6.0 0.00 0.00 0.00 60 1019.7
20260903231910 87 205 1.0 6.0 0.00 0.00 0.00 60 1019.7
20260903231814 87 205 1.0 6.0 0.00 0.00 0.00 59 1019.8
20260903231709 87 205 1.0 6.0 0.00 0.00 0.00 59 1019.8
20260903231613 87 209 1.0 6.0 0.00 0.00 0.00 59 1019.8
20260903231501 87 98 1.0 4.0 0.00 0.00 0.00 59 1019.7
20260903231400 87 98 1.0 4.0 0.00 0.00 0.00 59 1019.7
20260903231259 87 98 1.0 4.0 0.00 0.00 0.00 59 1019.7
20260903231159 87 98 1.0 4.0 0.00 0.00 0.00 59 1019.6
20260903231056 87 98 1.0 4.0 0.00 0.00 0.00 58 1019.7
20260903230951 88 158 1.0 4.0 0.00 0.00 0.00 58 1019.6
20260903230851 88 167 1.0 4.0 0.00 0.00 0.00 58 1019.6
20260903230748 88 130 1.0 4.0 0.00 0.00 0.00 58 1019.7
20260903230650 88 130 1.0 4.0 0.00 0.00 0.00 58 1019.7
20260903230550 88 169 1.0 4.0 0.00 0.00 0.00 58 1019.7
20260903230450 88 169 1.0 4.0 0.00 0.00 0.00 58 1019.7
20260903230421 88 155 1.0 3.0 0.00 0.00 0.00 58 1019.7
20260903230408 88 169 1.0 2.0 0.00 0.00 0.00 58 1019.7
20260903230148 88 173 1.0 3.0 0.00 0.00 0.00 57 1019.6
20260903230044 88 165 1.0 5.0 0.00 0.00 0.00 57 1019.6
20260903225933 88 165 1.0 5.0 0.00 0.00 0.00 57 1019.7
20260903225854 89 165 1.0 5.0 0.00 0.00 0.00 57 1019.6
20260903225848 89 165 1.0 5.0 0.00 0.00 0.00 57 1019.6
20260903225834 88 165 1.0 5.0 0.00 0.00 0.00 57 1019.6
20260903225813 88 165 1.0 5.0 0.00 0.00 0.00 56 1019.7
20260903225741 88 165 1.0 5.0 0.00 0.00 0.00 56 1019.6
20260903225332 89 167 0.0 5.0 0.00 0.00 0.00 55 1019.6
20260903225247 89 221 0.0 3.0 0.00 0.00 0.00 55 1019.6
20260903225233 89 173 1.0 5.0 0.00 0.00 0.00 55 1019.6
20260903225212 89 173 1.0 5.0 0.00 0.00 0.00 55 1019.5
20260903224943 89 221 1.0 3.0 0.00 0.00 0.00 55 1019.6
20260903224833 89 227 1.0 3.0 0.00 0.00 0.00 55 1019.5
20260903224734 89 227 1.0 3.0 0.00 0.00 0.00 55 1019.5
20260903224631 89 227 1.0 3.0 0.00 0.00 0.00 54 1019.5
20260903224528 89 227 1.0 3.0 0.00 0.00 0.00 53 1019.5
20260903224428 89 227 1.0 3.0 0.00 0.00 0.00 53 1019.5
20260903224329 89 227 1.0 3.0 0.00 0.00 0.00 54 1019.5
20260903224307 89 69 1.0 3.0 0.00 0.00 0.00 53 1019.5
20260903224255 89 71 1.0 3.0 0.00 0.00 0.00 53 1019.4
20260903224024 89 49 1.0 3.0 0.00 0.00 0.00 53 1019.4
20260903223928 89 49 1.0 3.0 0.00 0.00 0.00 52 1019.4
20260903223912 89 49 2.0 3.0 0.00 0.00 0.00 52 1019.5
20260903223905 89 49 1.0 3.0 0.00 0.00 0.00 52 1019.5
20260903223851 89 49 1.0 3.0 0.00 0.00 0.00 53 1019.5
20260903223825 89 49 1.0 3.0 0.00 0.00 0.00 52 1019.5
20260903223540 89 49 1.0 3.0 0.00 0.00 0.00 52 1019.4
20260903223527 89 49 1.0 3.0 0.00 0.00 0.00 52 1019.5
20260903223516 89 49 1.0 3.0 0.00 0.00 0.00 51 1019.5
20260903223511 89 49 1.0 3.0 0.00 0.00 0.00 52 1019.5
20260903223505 89 49 1.0 3.0 0.00 0.00 0.00 51 1019.5
20260903223457 89 49 1.0 3.0 0.00 0.00 0.00 51 1019.5
20260903223444 89 49 1.0 3.0 0.00 0.00 0.00 52 1019.5
20260903223420 89 49 1.0 3.0 0.00 0.00 0.00 51 1019.5
20260903223259 89 49 1.0 3.0 0.00 0.00 0.00 51 1019.5
20260903223240 89 49 1.0 3.0 0.00 0.00 0.00 51 1019.5
20260903223054 89 49 1.0 3.0 0.00 0.00 0.00 51 1019.5
20260903222901 89 49 1.0 3.0 0.00 0.00 0.00 52 1019.5
20260903222842 89 49 1.0 3.0 0.00 0.00 0.00 52 1019.5
20260903222433 89 49 1.0 3.0 0.00 0.00 0.00 51 1019.5
20260903222414 89 49 1.0 3.0 0.00 0.00 0.00 52 1019.5
20260903222106 89 49 1.0 3.0 0.00 0.00 0.00 51 1019.5
20260903222049 89 49 2.0 4.0 0.00 0.00 0.00 52 1019.5
20260903222032 89 49 2.0 3.0 0.00 0.00 0.00 52 1019.5
20260903221955 89 49 2.0 3.0 0.00 0.00 0.00 51 1019.5
20260903221607 89 49 2.0 4.0 0.00 0.00 0.00 52 1019.5
20260903221501 89 49 2.0 4.0 0.00 0.00 0.00 52 1019.4
20260903221401 89 49 2.0 4.0 0.00 0.00 0.00 53 1019.5
20260903221259 89 49 1.0 4.0 0.00 0.00 0.00 53 1019.4
20260903221235 89 49 1.0 4.0 0.00 0.00 0.00 52 1019.4
20260903221224 89 49 1.0 4.0 0.00 0.00 0.00 53 1019.4
20260903221154 89 49 1.0 4.0 0.00 0.00 0.00 51 1019.4
20260903221024 89 49 1.0 4.0 0.00 0.00 0.00 53 1019.4
20260903220759 89 49 1.0 4.0 0.00 0.00 0.00 52 1019.4
20260903220737 89 107 1.0 3.0 0.00 0.00 0.00 53 1019.4
20260903220731 89 107 2.0 3.0 0.00 0.00 0.00 52 1019.4
20260903220725 89 107 2.0 3.0 0.00 0.00 0.00 52 1019.4
20260903220710 89 107 1.0 3.0 0.00 0.00 0.00 52 1019.4
20260903220647 89 107 2.0 3.0 0.00 0.00 0.00 52 1019.4
20260903220625 89 107 1.0 3.0 0.00 0.00 0.00 52 1019.4
20260903220606 89 107 1.0 3.0 0.00 0.00 0.00 54 1019.4
20260903220345 89 107 2.0 3.0 0.00 0.00 0.00 53 1019.4
20260903220130 89 107 2.0 3.0 0.00 0.00 0.00 52 1019.4
20260903215732 89 107 2.0 3.0 0.00 0.00 0.00 52 1019.4
20260903215634 89 107 2.0 3.0 0.00 0.00 0.00 52 1019.5
20260903215536 89 107 2.0 3.0 0.00 0.00 0.00 51 1019.4
20260903215449 89 107 2.0 4.0 0.00 0.00 0.00 51 1019.5
20260903215430 89 107 2.0 3.0 0.00 0.00 0.00 52 1019.4
20260903215416 90 107 2.0 4.0 0.00 0.00 0.00 51 1019.5
20260903215343 89 107 2.0 4.0 0.00 0.00 0.00 51 1019.5
20260903215313 89 107 2.0 4.0 0.00 0.00 0.00 51 1019.5
20260903215028 90 107 2.0 4.0 0.00 0.00 0.00 51 1019.6
20260903214948 90 107 1.0 4.0 0.00 0.00 0.00 51 1019.6
20260903214927 90 107 2.0 4.0 0.00 0.00 0.00 50 1019.6
20260903214829 90 107 1.0 4.0 0.00 0.00 0.00 51 1019.6
20260903214722 90 107 1.0 4.0 0.00 0.00 0.00 50 1019.6
20260903214616 91 107 1.0 4.0 0.00 0.00 0.00 51 1019.7
20260903214604 91 107 1.0 4.0 0.00 0.00 0.00 50 1019.6
20260903214548 91 107 1.0 4.0 0.00 0.00 0.00 50 1019.7
20260903214316 91 107 1.0 4.0 0.00 0.00 0.00 50 1019.7
20260903214216 91 105 2.0 5.0 0.00 0.00 0.00 50 1019.7
20260903214127 91 96 2.0 5.0 0.00 0.00 0.00 50 1019.7
20260903214020 92 96 2.0 5.0 0.00 0.00 0.00 50 1019.7
20260903213913 92 96 2.0 6.0 0.00 0.00 0.00 50 1019.7
20260903213813 92 96 3.0 7.0 0.00 0.00 0.00 50 1019.8
20260903213751 92 94 4.0 8.0 0.00 0.00 0.00 50 1019.7
20260903213746 92 80 4.0 8.0 0.00 0.00 0.00 48 1019.8
20260903213737 92 96 3.0 7.0 0.00 0.00 0.00 50 1019.7
20260903213539 92 94 4.0 8.0 0.00 0.00 0.00 49 1019.8
20260903213509 92 117 4.0 8.0 0.00 0.00 0.00 49 1019.8
20260903213209 92 115 4.0 8.0 0.00 0.00 0.00 49 1019.8
20260903213112 92 119 4.0 8.0 0.00 0.00 0.00 49 1019.8
20260903213016 92 96 4.0 8.0 0.00 0.00 0.00 48 1019.8
20260903212934 93 97 3.0 8.0 0.00 0.00 0.00 49 1019.8
20260903212917 93 115 3.0 8.0 0.00 0.00 0.00 48 1019.8
20260903212854 93 96 3.0 7.0 0.00 0.00 0.00 48 1019.8
20260903212843 93 97 3.0 8.0 0.00 0.00 0.00 49 1019.8
20260903212606 93 101 3.0 7.0 0.00 0.00 0.00 49 1019.8
20260903212501 93 71 3.0 8.0 0.00 0.00 0.00 49 1019.8
20260903212401 93 147 3.0 8.0 0.00 0.00 0.00 49 1019.8
20260903212300 93 111 3.0 8.0 0.00 0.00 0.00 49 1019.8
20260903212158 93 98 3.0 8.0 0.00 0.00 0.00 49 1019.9
20260903212101 93 122 3.0 8.0 0.00 0.00 0.00 48 1019.9
20260903211959 93 121 3.0 8.0 0.00 0.00 0.00 49 1019.8
20260903211937 93 104 4.0 9.0 0.00 0.00 0.00 48 1019.8
20260903211912 93 75 3.0 8.0 0.00 0.00 0.00 49 1019.8
20260903211838 93 127 4.0 9.0 0.00 0.00 0.00 48 1019.8
20260903211554 93 104 4.0 9.0 0.00 0.00 0.00 48 1019.8
20260903211449 93 89 3.0 9.0 0.00 0.00 0.00 48 1019.8
20260903211343 93 164 3.0 9.0 0.00 0.00 0.00 48 1019.8
20260903211319 93 97 2.0 9.0 0.00 0.00 0.00 47 1019.8
20260903211259 93 115 3.0 9.0 0.00 0.00 0.00 48 1019.8
20260903211230 93 128 3.0 9.0 0.00 0.00 0.00 48 1019.8
20260903210949 93 80 2.0 9.0 0.00 0.00 0.00 47 1019.8
20260903210921 93 98 2.0 9.0 0.00 0.00 0.00 48 1019.8
20260903210903 93 94 2.0 9.0 0.00 0.00 0.00 47 1019.8
20260903210815 93 128 2.0 8.0 0.00 0.00 0.00 48 1019.8
20260903210551 93 83 2.0 9.0 0.00 0.00 0.00 48 1019.8
20260903210444 94 155 2.0 9.0 0.00 0.00 0.00 48 1019.8
20260903210438 94 150 1.0 9.0 0.00 0.00 0.00 47 1019.8
20260903210404 94 94 1.0 9.0 0.00 0.00 0.00 48 1019.8
20260903210327 94 132 1.0 9.0 0.00 0.00 0.00 49 1019.8
20260903210153 94 132 1.0 9.0 0.00 0.00 0.00 49 1019.8
20260903210113 94 117 1.0 3.0 0.00 0.00 0.00 50 1019.8
20260903210053 94 20 1.0 9.0 0.00 0.00 0.00 48 1019.8
20260903210018 94 21 1.0 9.0 0.00 0.00 0.00 48 1019.8
20260903205821 94 119 1.0 9.0 0.00 0.00 0.00 49 1019.8
20260903205536 94 117 1.0 3.0 0.00 0.00 0.00 49 1019.8
20260903205431 94 117 1.0 3.0 0.00 0.00 0.00 49 1019.8
20260903205330 94 117 1.0 3.0 0.00 0.00 0.00 49 1019.8
20260903205309 93 117 1.0 3.0 0.00 0.00 0.00 49 1019.8
20260903205234 93 117 1.0 3.0 0.00 0.00 0.00 49 1019.8
20260903205131 93 117 1.0 3.0 0.00 0.00 0.00 49 1019.8
20260903205037 93 117 1.0 4.0 0.00 0.00 0.00 50 1019.8
20260903204921 93 96 2.0 4.0 0.00 0.00 0.00 50 1019.8
20260903204832 93 94 2.0 6.0 0.00 0.00 0.00 50 1019.9
20260903204729 93 94 2.0 6.0 0.00 0.00 0.00 49 1019.9
20260903204627 93 94 2.0 6.0 0.00 0.00 0.00 49 1019.8
20260903204610 93 94 3.0 6.0 0.00 0.00 0.00 48 1019.9
20260903204535 93 94 3.0 6.0 0.00 0.00 0.00 48 1019.9
20260903204425 93 94 3.0 8.0 0.00 0.00 0.00 48 1020.1
20260903204320 93 92 3.0 8.0 0.00 0.00 0.00 49 1019.9
20260903204220 93 101 3.0 8.0 0.00 0.00 0.00 49 1019.9
20260903204121 93 101 3.0 8.0 0.00 0.00 0.00 49 1019.9
20260903204025 93 90 2.0 8.0 0.00 0.00 0.00 47 1019.9
20260903203948 94 117 2.0 8.0 0.00 0.00 0.00 48 1020.2
20260903203938 94 83 2.0 8.0 0.00 0.00 0.00 48 1020.2
20260903203718 93 116 2.0 8.0 0.00 0.00 0.00 47 1020.3
20260903203616 93 115 2.0 8.0 0.00 0.00 0.00 47 1020.2
20260903203517 93 115 2.0 9.0 0.00 0.00 0.00 47 1020.3
20260903203417 93 126 2.0 9.0 0.00 0.00 0.00 47 1020.3
20260903203315 93 82 2.0 9.0 0.00 0.00 0.00 46 1020.3
20260903203215 93 82 2.0 9.0 0.00 0.00 0.00 46 1020.3
20260903203115 93 82 2.0 9.0 0.00 0.00 0.00 46 1020.3
20260903203015 93 82 2.0 9.0 0.00 0.00 0.00 46 1020.3
20260903202918 93 72 2.0 9.0 0.00 0.00 0.00 45 1020.3
20260903202817 94 73 2.0 9.0 0.00 0.00 0.00 44 1020.3
20260903202701 94 154 2.0 9.0 0.00 0.00 0.00 45 1020.3
20260903202602 94 119 2.0 9.0 0.00 0.00 0.00 45 1020.3
20260903202503 94 94 2.0 7.0 0.00 0.00 0.00 46 1020.3
20260903202439 94 106 2.0 11.0 0.00 0.00 0.00 47 1020.3
20260903202426 94 109 2.0 11.0 0.00 0.00 0.00 47 1020.3
20260903202154 94 103 2.0 11.0 0.00 0.00 0.00 47 1020.3
20260903202054 94 98 2.0 11.0 0.00 0.00 0.00 47 1020.3
20260903201955 94 129 2.0 11.0 0.00 0.00 0.00 47 1020.3
20260903201929 94 138 1.0 11.0 0.00 0.00 0.00 47 1020.3
20260903201919 94 123 2.0 11.0 0.00 0.00 0.00 48 1020.3
20260903201648 94 136 1.0 11.0 0.00 0.00 0.00 48 1020.3
20260903201548 94 119 1.0 11.0 0.00 0.00 0.00 48 1020.4
20260903201451 94 119 1.0 11.0 0.00 0.00 0.00 47 1020.3
20260903201346 94 138 1.0 5.0 0.00 0.00 0.00 48 1020.3
20260903201321 93 140 1.0 5.0 0.00 0.00 0.00 48 1020.4
20260903201308 93 178 1.0 5.0 0.00 0.00 0.00 48 1020.4
20260903201121 93 103 1.0 5.0 0.00 0.00 0.00 49 1020.4
20260903201109 93 110 1.0 5.0 0.00 0.00 0.00 47 1020.3
20260903200846 93 187 2.0 8.0 0.00 0.00 0.00 48 1020.3
20260903200746 93 187 2.0 10.0 0.00 0.00 0.00 48 1020.4
20260903200737 92 233 2.0 10.0 0.00 0.00 0.00 52 1020.4
20260903200720 93 187 2.0 10.0 0.00 0.00 0.00 49 1020.4
20260903200559 93 205 2.0 10.0 0.00 0.00 0.00 51 1020.4
20260903200340 92 136 3.0 10.0 0.00 0.00 0.00 51 1020.4
20260903200240 92 136 3.0 10.0 0.00 0.00 0.00 50 1020.4
20260903200140 92 153 3.0 10.0 0.00 0.00 0.00 50 1020.4
20260903200039 92 153 3.0 10.0 0.00 0.00 0.00 49 1020.4
20260903200016 92 111 3.0 10.0 0.00 0.00 0.00 50 1020.5
20260903200002 92 103 3.0 10.0 0.00 0.00 0.00 50 1020.5
20260903195739 92 132 3.0 9.0 0.00 0.00 0.00 51 1020.5
20260903195640 92 147 3.0 9.0 0.00 0.00 0.00 50 1020.5
20260903195555 92 128 4.0 9.0 0.00 0.00 0.00 52 1020.6
20260903195551 92 86 3.0 9.0 0.00 0.00 0.00 52 1020.6
20260903195540 92 63 3.0 9.0 0.00 0.00 0.00 50 1020.5
20260903195533 92 86 3.0 9.0 0.00 0.00 0.00 52 1020.5
20260903195527 92 79 3.0 9.0 0.00 0.00 0.00 52 1020.6
20260903195513 92 95 3.0 9.0 0.00 0.00 0.00 50 1020.5
20260903195455 92 127 3.0 9.0 0.00 0.00 0.00 50 1020.6
20260903195159 92 86 3.0 9.0 0.00 0.00 0.00 52 1020.6
20260903195141 92 86 3.0 9.0 0.00 0.00 0.00 51 1020.5
20260903194637 92 119 4.0 9.0 0.00 0.00 0.00 52 1020.6
20260903194537 92 88 4.0 9.0 0.00 0.00 0.00 52 1020.6
20260903194437 92 101 4.0 9.0 0.00 0.00 0.00 52 1020.6
20260903194339 92 136 3.0 9.0 0.00 0.00 0.00 54 1020.6
20260903194233 92 89 3.0 9.0 0.00 0.00 0.00 54 1020.6
20260903194205 92 192 3.0 9.0 0.00 0.00 0.00 52 1020.6
20260903194153 92 192 3.0 9.0 0.00 0.00 0.00 54 1020.6
20260903193930 92 146 3.0 9.0 0.00 0.00 0.00 53 1020.6
20260903193828 92 142 3.0 9.0 0.00 0.00 0.00 52 1020.6
20260903193721 92 113 3.0 9.0 0.00 0.00 0.00 53 1020.6
20260903193622 92 119 3.0 9.0 0.00 0.00 0.00 53 1020.6
20260903193521 92 125 2.0 6.0 0.00 0.00 0.00 53 1020.6
20260903193421 92 119 2.0 6.0 0.00 0.00 0.00 52 1020.7
20260903193320 92 42 2.0 6.0 0.00 0.00 0.00 52 1020.7
20260903193234 92 78 2.0 5.0 0.00 0.00 0.00 52 1020.7
20260903193223 92 117 2.0 6.0 0.00 0.00 0.00 53 1020.7
20260903193216 93 82 2.0 5.0 0.00 0.00 0.00 52 1020.7
20260903193159 92 55 2.0 6.0 0.00 0.00 0.00 52 1020.7
20260903192820 92 82 2.0 5.0 0.00 0.00 0.00 52 1020.7
20260903192755 92 78 1.0 5.0 0.00 0.00 0.00 52 1020.6
20260903192744 92 47 1.0 5.0 0.00 0.00 0.00 53 1020.7
20260903192514 92 47 1.0 5.0 0.00 0.00 0.00 51 1020.7
20260903192417 92 47 1.0 5.0 0.00 0.00 0.00 53 1020.7
20260903192314 92 44 1.0 5.0 0.00 0.00 0.00 52 1020.7
20260903192224 92 69 2.0 8.0 0.00 0.00 0.00 54 1020.8
20260903192214 92 61 1.0 5.0 0.00 0.00 0.00 52 1020.8
20260903192145 92 69 2.0 8.0 0.00 0.00 0.00 54 1020.8
20260903192131 92 63 1.0 5.0 0.00 0.00 0.00 52 1020.8
20260903192103 92 110 2.0 8.0 0.00 0.00 0.00 53 1020.8
20260903191936 92 106 2.0 8.0 0.00 0.00 0.00 54 1020.8
20260903191711 92 69 2.0 8.0 0.00 0.00 0.00 53 1020.9
20260903191610 92 72 2.0 8.0 0.00 0.00 0.00 53 1020.8
20260903191511 92 73 3.0 8.0 0.00 0.00 0.00 53 1020.8
20260903191412 92 72 3.0 8.0 0.00 0.00 0.00 53 1020.9
20260903191310 92 72 3.0 8.0 0.00 0.00 0.00 53 1020.8
20260903191241 92 51 2.0 8.0 0.00 0.00 0.00 53 1021.0
20260903191233 92 73 3.0 8.0 0.00 0.00 0.00 52 1020.9
20260903191010 92 70 2.0 8.0 0.00 0.00 0.00 54 1021.0
20260903190928 92 79 2.0 8.0 0.00 0.00 0.00 53 1021.1
20260903190915 92 120 2.0 8.0 0.00 0.00 0.00 54 1021.0
20260903190907 92 76 2.0 8.0 0.00 0.00 0.00 54 1021.1
20260903190849 92 117 2.0 8.0 0.00 0.00 0.00 54 1021.1
20260903190520 92 90 2.0 6.0 0.00 0.00 0.00 55 1021.2
20260903190509 92 97 2.0 6.0 0.00 0.00 0.00 54 1021.1
20260903190502 91 90 2.0 6.0 0.00 0.00 0.00 55 1021.2
20260903190445 92 122 2.0 6.0 0.00 0.00 0.00 53 1021.1
20260903190059 91 106 2.0 6.0 0.00 0.00 0.00 55 1021.1
20260903185958 91 115 2.0 6.0 0.00 0.00 0.00 55 1021.2
20260903185859 91 174 2.0 6.0 0.00 0.00 0.00 56 1021.2
20260903185754 91 91 2.0 6.0 0.00 0.00 0.00 55 1021.2
20260903185654 91 40 2.0 6.0 0.00 0.00 0.00 55 1021.2
20260903185553 91 192 2.0 5.0 0.00 0.00 0.00 54 1021.2
20260903185454 90 108 2.0 5.0 0.00 0.00 0.00 54 1021.2
20260903185405 90 112 2.0 5.0 0.00 0.00 0.00 56 1021.2
20260903185252 90 94 2.0 5.0 0.00 0.00 0.00 55 1021.2
20260903185152 90 94 2.0 5.0 0.00 0.00 0.00 55 1021.2
20260903185056 90 94 2.0 5.0 0.00 0.00 0.00 55 1021.2
20260903184950 90 140 2.0 5.0 0.00 0.00 0.00 56 1021.2
20260903184852 90 92 2.0 5.0 0.00 0.00 0.00 55 1021.1
20260903184752 90 341 2.0 5.0 0.00 0.00 0.00 56 1021.2
20260903184650 90 342 2.0 5.0 0.00 0.00 0.00 55 1021.2
20260903184551 90 338 2.0 5.0 0.00 0.00 0.00 55 1021.2
20260903184450 90 340 1.0 4.0 0.00 0.00 0.00 56 1021.2
20260903184351 90 324 1.0 4.0 0.00 0.00 0.00 57 1021.2
20260903184251 90 206 1.0 4.0 0.00 0.00 0.00 56 1021.2
20260903184154 90 206 1.0 4.0 0.00 0.00 0.00 56 1021.2
20260903184051 89 202 1.0 4.0 0.00 0.00 0.00 56 1021.3
20260903183950 89 197 1.0 4.0 0.00 0.00 0.00 57 1021.2
20260903183852 89 296 1.0 3.0 0.00 0.00 0.00 57 1021.4
20260903183755 89 100 1.0 3.0 0.00 0.00 0.00 57 1021.3
20260903183652 89 100 1.0 3.0 0.00 0.00 0.00 56 1021.4
20260903183550 89 100 1.0 3.0 0.00 0.00 0.00 55 1021.4
20260903183450 89 100 1.0 3.0 0.00 0.00 0.00 55 1021.4
20260903183351 89 100 1.0 3.0 0.00 0.00 0.00 57 1021.4
20260903183252 89 100 1.0 3.0 0.00 0.00 0.00 57 1021.4
20260903183147 89 101 1.0 3.0 0.00 0.00 0.00 58 1021.4
20260903183047 89 109 1.0 5.0 0.00 0.00 0.00 56 1021.5
20260903183018 89 107 2.0 5.0 0.00 0.00 0.00 56 1021.4
20260903183007 89 109 2.0 5.0 0.00 0.00 0.00 56 1021.4
20260903182748 89 107 2.0 5.0 0.00 0.00 0.00 57 1021.5
20260903182722 89 349 2.0 5.0 0.00 0.00 0.00 56 1021.5
20260903182710 89 107 2.0 5.0 0.00 0.00 0.00 57 1021.5
20260903182449 89 349 2.0 5.0 0.00 0.00 0.00 58 1021.5
20260903182345 89 346 2.0 5.0 0.00 0.00 0.00 57 1021.5
20260903182245 89 344 2.0 5.0 0.00 0.00 0.00 58 1021.4
20260903182142 89 65 2.0 6.0 0.00 0.00 0.00 57 1021.5
20260903182045 89 306 2.0 6.0 0.00 0.00 0.00 56 1021.5
20260903182025 89 288 2.0 6.0 0.00 0.00 0.00 55 1021.5
20260903182020 89 298 2.0 6.0 0.00 0.00 0.00 55 1021.7
20260903181947 89 306 2.0 6.0 0.00 0.00 0.00 56 1021.5
20260903181812 89 313 2.0 6.0 0.00 0.00 0.00 56 1021.7
20260903181755 89 292 2.0 6.0 0.00 0.00 0.00 55 1021.5
20260903181507 89 288 2.0 6.0 0.00 0.00 0.00 56 1021.5
20260903181313 89 304 2.0 4.0 0.00 0.00 0.00 56 1021.7
20260903181303 89 291 2.0 6.0 0.00 0.00 0.00 57 1021.7
20260903181044 89 66 2.0 7.0 0.00 0.00 0.00 56 1021.8
20260903181029 89 16 3.0 8.0 0.00 0.00 0.00 56 1021.7
20260903181014 89 355 2.0 7.0 0.00 0.00 0.00 56 1021.8
20260903180745 90 16 3.0 10.0 0.00 0.00 0.00 56 1021.7
20260903180643 90 16 3.0 10.0 0.00 0.00 0.00 56 1021.7
20260903180542 90 11 3.0 10.0 0.00 0.00 0.00 56 1021.7
20260903180442 90 348 3.0 10.0 0.00 0.00 0.00 55 1021.7
20260903180342 90 347 3.0 10.0 0.00 0.00 0.00 55 1021.7
20260903180251 90 346 3.0 10.0 0.00 0.00 0.00 55 1021.7
20260903180216 91 13 3.0 10.0 0.00 0.00 0.00 54 1021.5
20260903180206 91 348 3.0 10.0 0.00 0.00 0.00 54 1021.7
20260903175944 91 22 3.0 10.0 0.00 0.00 0.00 54 1021.8
20260903175918 91 19 2.0 5.0 0.00 0.00 0.00 57 1021.7
20260903175906 91 5 2.0 10.0 0.00 0.00 0.00 56 1021.7
20260903175641 91 348 2.0 5.0 0.00 0.00 0.00 56 1021.7
20260903175543 91 350 3.0 11.0 0.00 0.00 0.00 56 1021.7
20260903175442 90 349 2.0 11.0 0.00 0.00 0.00 57 1021.8
20260903175343 90 67 2.0 11.0 0.00 0.00 0.00 56 1021.7
20260903175243 90 40 3.0 11.0 0.00 0.00 0.00 55 1021.7
20260903175219 91 247 3.0 11.0 0.00 0.00 0.00 56 1021.7
20260903175205 90 291 2.0 11.0 0.00 0.00 0.00 55 1021.8
20260903175014 90 269 3.0 11.0 0.00 0.00 0.00 57 1021.8
20260903175004 90 71 3.0 11.0 0.00 0.00 0.00 55 1021.7
20260903174743 90 292 3.0 11.0 0.00 0.00 0.00 56 1021.8
20260903174642 90 198 2.0 11.0 0.00 0.00 0.00 57 1021.7
20260903174622 90 196 2.0 6.0 0.00 0.00 0.00 55 1021.7
20260903174610 90 206 2.0 6.0 0.00 0.00 0.00 57 1021.8
20260903174342 90 86 2.0 6.0 0.00 0.00 0.00 54 1021.8
20260903174241 90 100 2.0 6.0 0.00 0.00 0.00 54 1021.8
20260903174138 90 118 2.0 6.0 0.00 0.00 0.00 54 1021.9
20260903174036 90 102 2.0 6.0 0.00 0.00 0.00 54 1021.9
20260903173927 90 115 2.0 6.0 0.00 0.00 0.00 55 1021.9
20260903173854 90 80 2.0 6.0 0.00 0.00 0.00 54 1021.9
20260903173846 90 108 2.0 6.0 0.00 0.00 0.00 55 1021.9
20260903173626 90 81 2.0 6.0 0.00 0.00 0.00 54 1021.9
20260903173526 90 71 2.0 7.0 0.00 0.00 0.00 54 1022.0
20260903173418 90 68 2.0 7.0 0.00 0.00 0.00 54 1022.0
20260903173318 90 240 3.0 7.0 0.00 0.00 0.00 56 1021.9
20260903173218 90 229 2.0 7.0 0.00 0.00 0.00 56 1022.0
20260903173119 90 232 3.0 7.0 0.00 0.00 0.00 57 1021.9
20260903173020 90 79 3.0 8.0 0.00 0.00 0.00 56 1021.9
20260903172914 89 85 3.0 8.0 0.00 0.00 0.00 56 1021.9
20260903172849 89 187 3.0 8.0 0.00 0.00 0.00 56 1021.9
20260903172838 89 190 3.0 8.0 0.00 0.00 0.00 59 1022.0
20260903172616 90 55 3.0 8.0 0.00 0.00 0.00 55 1022.0
20260903172526 89 113 3.0 8.0 0.00 0.00 0.00 58 1021.9
20260903172515 90 82 3.0 8.0 0.00 0.00 0.00 57 1022.0
20260903172507 89 65 3.0 8.0 0.00 0.00 0.00 57 1021.9
20260903172503 89 55 3.0 8.0 0.00 0.00 0.00 57 1022.0
20260903172443 90 69 3.0 8.0 0.00 0.00 0.00 57 1021.9
20260903172420 89 80 3.0 8.0 0.00 0.00 0.00 56 1021.9
20260903171905 89 54 3.0 9.0 0.00 0.00 0.00 57 1021.9
20260903171826 89 92 3.0 9.0 0.00 0.00 0.00 58 1022.1
20260903171818 90 73 3.0 9.0 0.00 0.00 0.00 56 1022.0
20260903171754 89 80 3.0 9.0 0.00 0.00 0.00 58 1022.0
20260903171623 89 63 3.0 9.0 0.00 0.00 0.00 58 1022.0
20260903171400 89 65 3.0 9.0 0.00 0.00 0.00 58 1022.0
20260903171300 89 65 3.0 9.0 0.00 0.00 0.00 59 1022.0
20260903171159 89 34 2.0 9.0 0.00 0.00 0.00 59 1022.0
20260903171059 89 104 3.0 9.0 0.00 0.00 0.00 61 1022.0
20260903171000 89 69 2.0 9.0 0.00 0.00 0.00 58 1022.0
20260903170857 89 71 2.0 8.0 0.00 0.00 0.00 58 1022.0
20260903170759 88 110 2.0 6.0 0.00 0.00 0.00 58 1022.0
20260903170700 88 121 2.0 6.0 0.00 0.00 0.00 57 1022.1
20260903170600 88 126 2.0 6.0 0.00 0.00 0.00 58 1022.0
20260903170500 88 119 2.0 6.0 0.00 0.00 0.00 56 1022.1
20260903170437 89 119 3.0 6.0 0.00 0.00 0.00 57 1022.0
20260903170424 89 119 2.0 6.0 0.00 0.00 0.00 57 1022.0
20260903170156 89 117 2.0 6.0 0.00 0.00 0.00 58 1022.1
20260903170055 89 86 2.0 5.0 0.00 0.00 0.00 57 1022.0
20260903170042 89 121 2.0 5.0 0.00 0.00 0.00 59 1022.1
20260903170023 89 82 2.0 5.0 0.00 0.00 0.00 58 1022.0
20260903165754 89 19 2.0 5.0 0.00 0.00 0.00 57 1022.1
20260903165655 88 17 2.0 5.0 0.00 0.00 0.00 57 1022.1
20260903165622 89 32 1.0 5.0 0.00 0.00 0.00 57 1022.1
20260903165612 89 17 2.0 5.0 0.00 0.00 0.00 56 1022.1
20260903165351 89 63 1.0 5.0 0.00 0.00 0.00 57 1022.2
20260903165329 89 70 1.0 4.0 0.00 0.00 0.00 57 1022.2
20260903165319 89 72 1.0 4.0 0.00 0.00 0.00 58 1022.2
20260903165052 89 70 2.0 4.0 0.00 0.00 0.00 57 1022.2
20260903165023 88 78 2.0 4.0 0.00 0.00 0.00 60 1022.3
20260903165012 89 73 2.0 4.0 0.00 0.00 0.00 59 1022.2
20260903164753 88 82 2.0 4.0 0.00 0.00 0.00 62 1022.3
20260903164652 87 82 2.0 5.0 0.00 0.00 0.00 59 1022.3
20260903164558 87 82 2.0 5.0 0.00 0.00 0.00 59 1022.4
20260903164449 87 80 2.0 5.0 0.00 0.00 0.00 60 1022.4
20260903164420 87 78 2.0 5.0 0.00 0.00 0.00 61 1022.5
20260903164411 87 78 2.0 5.0 0.00 0.00 0.00 62 1022.4
20260903164149 87 86 2.0 5.0 0.00 0.00 0.00 62 1022.4
20260903164048 86 80 1.0 5.0 0.00 0.00 0.00 62 1022.4
20260903164022 86 69 1.0 5.0 0.00 0.00 0.00 62 1022.5
20260903164009 86 69 1.0 5.0 0.00 0.00 0.00 61 1022.5
20260903163815 86 61 0.0 4.0 0.00 0.00 0.00 63 1022.4
20260903163805 86 68 1.0 5.0 0.00 0.00 0.00 62 1022.5
20260903163542 86 61 0.0 3.0 0.00 0.00 0.00 66 1022.6
20260903163440 85 339 0.0 0.0 0.00 0.00 0.00 64 1022.4
20260903163354 85 306 0.0 0.0 0.00 0.00 0.00 64 1022.4
20260903163349 85 306 0.0 0.0 0.00 0.00 0.00 64 1022.5
20260903163339 85 306 0.0 0.0 0.00 0.00 0.00 65 1022.4
20260903163316 85 306 0.0 0.0 0.00 0.00 0.00 63 1022.5
20260903162935 85 306 0.0 0.0 0.00 0.00 0.00 65 1022.4
20260903162834 85 306 0.0 0.0 0.00 0.00 0.00 66 1022.5
20260903162735 85 306 0.0 0.0 0.00 0.00 0.00 67 1022.5
20260903162728 85 306 0.0 2.0 0.00 0.00 0.00 65 1022.5
20260903162724 85 306 0.0 2.0 0.00 0.00 0.00 65 1022.5
20260903162719 85 306 0.0 2.0 0.00 0.00 0.00 65 1022.6
20260903162701 85 306 0.0 0.0 0.00 0.00 0.00 66 1022.6
20260903162641 85 306 0.0 1.0 0.00 0.00 0.00 66 1022.5
20260903162132 85 306 0.0 2.0 0.00 0.00 0.00 64 1022.6
20260903162031 85 306 1.0 2.0 0.00 0.00 0.00 64 1022.6
20260903161930 85 306 1.0 2.0 0.00 0.00 0.00 65 1022.6
20260903161853 85 306 1.0 2.0 0.00 0.00 0.00 66 1022.5
20260903161845 85 306 1.0 2.0 0.00 0.00 0.00 65 1022.5
20260903161627 85 306 1.0 2.0 0.00 0.00 0.00 63 1022.5
20260903161525 85 306 1.0 3.0 0.00 0.00 0.00 63 1022.5
20260903161422 85 306 1.0 3.0 0.00 0.00 0.00 64 1022.5
20260903161354 84 306 2.0 3.0 0.00 0.00 0.00 65 1022.6
20260903161343 85 306 1.0 3.0 0.00 0.00 0.00 65 1022.5
20260903161122 85 306 2.0 3.0 0.00 0.00 0.00 66 1022.6
20260903161023 84 306 2.0 3.0 0.00 0.00 0.00 63 1022.6
20260903160922 84 306 2.0 3.0 0.00 0.00 0.00 64 1022.5
20260903160822 84 306 2.0 3.0 0.00 0.00 0.00 63 1022.5
20260903160804 84 306 2.0 3.0 0.00 0.00 0.00 63 1022.5
20260903160751 84 306 2.0 3.0 0.00 0.00 0.00 64 1022.5
20260903160518 84 306 2.0 4.0 0.00 0.00 0.00 64 1022.6
20260903160418 84 306 2.0 4.0 0.00 0.00 0.00 63 1022.5
20260903160352 84 306 2.0 4.0 0.00 0.00 0.00 65 1022.6
20260903160339 84 306 2.0 4.0 0.00 0.00 0.00 65 1022.6
20260903160116 84 306 2.0 4.0 0.00 0.00 0.00 65 1022.6
20260903160010 84 306 2.0 4.0 0.00 0.00 0.00 65 1022.6
20260903155909 84 306 2.0 4.0 0.00 0.00 0.00 65 1022.6
20260903155809 84 306 2.0 4.0 0.00 0.00 0.00 65 1022.6
20260903155707 84 305 2.0 4.0 0.00 0.00 0.00 65 1022.6
20260903155608 84 305 2.0 4.0 0.00 0.00 0.00 65 1022.6
20260903155558 86 211 1.0 5.0 0.00 0.00 0.00 66 1022.6
20260903155554 85 303 2.0 3.0 0.00 0.00 0.00 67 1022.6
20260903155533 84 304 2.0 3.0 0.00 0.00 0.00 65 1022.6
20260903155517 84 304 2.0 3.0 0.00 0.00 0.00 66 1022.6
20260903155230 85 350 1.0 3.0 0.00 0.00 0.00 65 1022.6
20260903155226 85 350 1.0 3.0 0.00 0.00 0.00 64 1022.7
20260903155220 85 349 1.0 3.0 0.00 0.00 0.00 65 1022.6
20260903155208 85 303 1.0 3.0 0.00 0.00 0.00 66 1022.6
20260903155149 85 347 1.0 3.0 0.00 0.00 0.00 66 1022.6
20260903154904 85 350 1.0 3.0 0.00 0.00 0.00 64 1022.5
20260903154852 85 349 1.0 3.0 0.00 0.00 0.00 66 1022.6
20260903154825 85 349 1.0 3.0 0.00 0.00 0.00 66 1022.6
20260903154700 85 349 1.0 3.0 0.00 0.00 0.00 66 1022.6
20260903154644 85 350 1.0 3.0 0.00 0.00 0.00 66 1022.7
20260903154625 85 350 1.0 3.0 0.00 0.00 0.00 65 1022.6
20260903154133 85 240 1.0 2.0 0.00 0.00 0.00 63 1022.6
20260903154015 85 240 1.0 2.0 0.00 0.00 0.00 62 1022.6
20260903154009 85 240 1.0 4.0 0.00 0.00 0.00 63 1022.6
20260903153943 85 240 1.0 2.0 0.00 0.00 0.00 63 1022.7
20260903153934 86 241 1.0 4.0 0.00 0.00 0.00 62 1022.7
20260903153927 86 241 1.0 5.0 0.00 0.00 0.00 63 1022.7
20260903153921 86 240 1.0 5.0 0.00 0.00 0.00 63 1022.6
20260903153914 86 294 1.0 5.0 0.00 0.00 0.00 64 1022.7
20260903153908 86 111 1.0 5.0 0.00 0.00 0.00 64 1022.7
20260903153903 86 211 1.0 5.0 0.00 0.00 0.00 66 1022.6
20260903153851 85 240 1.0 2.0 0.00 0.00 0.00 62 1022.6
20260903153830 85 241 1.0 2.0 0.00 0.00 0.00 62 1022.6
20260903153637 85 240 1.0 4.0 0.00 0.00 0.00 62 1022.6
20260903153605 85 241 1.0 4.0 0.00 0.00 0.00 62 1022.6
20260903153527 85 240 1.0 4.0 0.00 0.00 0.00 63 1022.6
20260903153457 85 241 1.0 4.0 0.00 0.00 0.00 63 1022.6
20260903153249 86 241 1.0 4.0 0.00 0.00 0.00 63 1022.6
20260903153222 86 240 1.0 4.0 0.00 0.00 0.00 62 1022.6
20260903152605 86 294 1.0 5.0 0.00 0.00 0.00 63 1022.6
20260903152429 85 214 1.0 4.0 0.00 0.00 0.00 66 1022.6
20260903152424 85 204 1.0 5.0 0.00 0.00 0.00 66 1022.6
20260903152407 86 213 1.0 5.0 0.00 0.00 0.00 66 1022.6
20260903152224 86 111 1.0 5.0 0.00 0.00 0.00 65 1022.6
20260903152036 86 211 1.0 5.0 0.00 0.00 0.00 67 1022.6
20260903151522 85 203 1.0 5.0 0.00 0.00 0.00 66 1022.6
20260903151419 85 236 1.0 5.0 0.00 0.00 0.00 65 1022.7
20260903151344 85 236 1.0 5.0 0.00 0.00 0.00 66 1022.6
20260903151339 85 236 1.0 5.0 0.00 0.00 0.00 66 1022.6
20260903151325 85 236 1.0 5.0 0.00 0.00 0.00 66 1022.6
20260903151302 85 236 1.0 5.0 0.00 0.00 0.00 67 1022.6
20260903150919 85 236 1.0 5.0 0.00 0.00 0.00 67 1022.5
20260903150812 85 236 1.0 5.0 0.00 0.00 0.00 66 1022.5
20260903150707 85 209 1.0 4.0 0.00 0.00 0.00 67 1022.5
20260903150637 85 344 1.0 3.0 0.00 0.00 0.00 67 1022.5
20260903150628 85 344 1.0 3.0 0.00 0.00 0.00 67 1022.5
20260903150404 85 344 1.0 3.0 0.00 0.00 0.00 66 1022.5
20260903150333 85 344 1.0 3.0 0.00 0.00 0.00 65 1022.6
20260903150324 85 344 1.0 3.0 0.00 0.00 0.00 66 1022.5
20260903150100 85 309 1.0 3.0 0.00 0.00 0.00 68 1022.5
20260903150001 85 309 1.0 3.0 0.00 0.00 0.00 68 1022.5
20260903145858 85 313 1.0 3.0 0.00 0.00 0.00 66 1022.5
20260903145757 85 313 1.0 3.0 0.00 0.00 0.00 65 1022.5
20260903145658 85 313 1.0 3.0 0.00 0.00 0.00 65 1022.5
20260903145555 85 310 1.0 3.0 0.00 0.00 0.00 68 1022.5
20260903145454 85 278 1.0 3.0 0.00 0.00 0.00 68 1022.4
20260903145353 85 243 1.0 4.0 0.00 0.00 0.00 68 1022.5
20260903145250 85 243 1.0 4.0 0.00 0.00 0.00 68 1022.5
20260903145140 85 243 1.0 4.0 0.00 0.00 0.00 67 1022.5
20260903145041 85 244 1.0 4.0 0.00 0.00 0.00 68 1022.4
20260903144940 85 244 1.0 4.0 0.00 0.00 0.00 67 1022.5
20260903144843 85 244 1.0 4.0 0.00 0.00 0.00 67 1022.4
20260903144737 85 244 1.0 4.0 0.00 0.00 0.00 67 1022.4
20260903144636 85 244 1.0 4.0 0.00 0.00 0.00 67 1022.4
20260903144540 84 249 2.0 6.0 0.00 0.00 0.00 65 1022.4
20260903144535 84 251 2.0 6.0 0.00 0.00 0.00 65 1022.4
20260903144516 85 244 2.0 6.0 0.00 0.00 0.00 65 1022.4
20260903144209 84 250 2.0 6.0 0.00 0.00 0.00 67 1022.4
20260903144156 84 250 2.0 6.0 0.00 0.00 0.00 66 1022.4
20260903144004 84 255 1.0 6.0 0.00 0.00 0.00 65 1022.4
20260903143950 84 250 1.0 6.0 0.00 0.00 0.00 66 1022.4
20260903143725 84 255 1.0 6.0 0.00 0.00 0.00 65 1022.4
20260903143639 84 213 1.0 4.0 0.00 0.00 0.00 64 1022.3
20260903143633 84 219 1.0 3.0 0.00 0.00 0.00 65 1022.3
20260903143620 84 286 1.0 6.0 0.00 0.00 0.00 65 1022.3
20260903143558 84 219 1.0 4.0 0.00 0.00 0.00 65 1022.3
20260903143215 84 219 1.0 3.0 0.00 0.00 0.00 67 1022.3
20260903143114 84 219 1.0 3.0 0.00 0.00 0.00 67 1022.3
20260903143012 84 288 1.0 3.0 0.00 0.00 0.00 66 1022.4
20260903142914 84 288 2.0 3.0 0.00 0.00 0.00 65 1022.2
20260903142810 84 288 2.0 4.0 0.00 0.00 0.00 65 1022.3
20260903142753 84 309 2.0 4.0 0.00 0.00 0.00 67 1022.2
20260903142747 84 288 2.0 4.0 0.00 0.00 0.00 66 1022.2
20260903142735 84 288 2.0 4.0 0.00 0.00 0.00 67 1022.2
20260903142559 84 287 2.0 4.0 0.00 0.00 0.00 67 1022.2
20260903142557 84 317 2.0 4.0 0.00 0.00 0.00 66 1022.2
20260903142540 84 287 2.0 4.0 0.00 0.00 0.00 66 1022.3
20260903142355 84 284 2.0 4.0 0.00 0.00 0.00 66 1022.2
20260903142113 84 271 2.0 4.0 0.00 0.00 0.00 67 1022.2
20260903142057 84 317 2.0 4.0 0.00 0.00 0.00 65 1022.2
20260903142034 84 317 2.0 4.0 0.00 0.00 0.00 67 1022.2
20260903141650 84 288 2.0 4.0 0.00 0.00 0.00 66 1022.2
20260903141548 84 332 1.0 4.0 0.00 0.00 0.00 66 1022.2
20260903141448 84 332 1.0 4.0 0.00 0.00 0.00 66 1022.2
20260903141344 84 332 1.0 4.0 0.00 0.00 0.00 66 1022.3
20260903141324 83 332 1.0 4.0 0.00 0.00 0.00 66 1022.3
20260903141313 84 332 1.0 4.0 0.00 0.00 0.00 66 1022.3
20260903141040 83 336 1.0 4.0 0.00 0.00 0.00 66 1022.3
20260903140936 83 336 1.0 4.0 0.00 0.00 0.00 69 1022.3
20260903140837 83 254 1.0 4.0 0.00 0.00 0.00 68 1022.3
20260903140736 83 254 1.0 4.0 0.00 0.00 0.00 69 1022.4
20260903140637 83 254 1.0 4.0 0.00 0.00 0.00 70 1022.3
20260903140530 83 254 1.0 4.0 0.00 0.00 0.00 68 1022.3
20260903140431 83 254 1.0 4.0 0.00 0.00 0.00 69 1022.4
20260903140411 83 250 1.0 4.0 0.00 0.00 0.00 71 1022.3
20260903140355 83 250 1.0 4.0 0.00 0.00 0.00 69 1022.4
20260903140127 83 205 1.0 4.0 0.00 0.00 0.00 70 1022.3
20260903140022 83 205 1.0 4.0 0.00 0.00 0.00 70 1022.4
20260903135920 83 205 1.0 4.0 0.00 0.00 0.00 70 1022.3
20260903135823 83 205 1.0 4.0 0.00 0.00 0.00 70 1022.3
20260903135721 83 205 1.0 4.0 0.00 0.00 0.00 70 1022.3
20260903135622 83 205 1.0 4.0 0.00 0.00 0.00 70 1022.4
20260903135515 83 205 1.0 4.0 0.00 0.00 0.00 69 1022.4
20260903135444 82 205 0.0 4.0 0.00 0.00 0.00 69 1022.3
20260903135435 82 205 1.0 4.0 0.00 0.00 0.00 69 1022.4
20260903135249 82 203 0.0 3.0 0.00 0.00 0.00 69 1022.2
20260903135238 82 205 0.0 4.0 0.00 0.00 0.00 69 1022.4
20260903135006 82 211 0.0 1.0 0.00 0.00 0.00 70 1022.4
20260903134905 82 223 0.0 0.0 0.00 0.00 0.00 69 1022.3
20260903134804 82 223 0.0 0.0 0.00 0.00 0.00 69 1022.3
20260903134703 82 225 0.0 0.0 0.00 0.00 0.00 69 1022.4
20260903134602 82 225 0.0 0.0 0.00 0.00 0.00 69 1022.3
20260903134459 82 225 0.0 0.0 0.00 0.00 0.00 70 1022.3
20260903134358 82 225 0.0 0.0 0.00 0.00 0.00 69 1022.4
20260903134300 82 225 0.0 2.0 0.00 0.00 0.00 70 1022.3
20260903134156 82 211 0.0 2.0 0.00 0.00 0.00 71 1022.3
20260903134055 81 211 0.0 2.0 0.00 0.00 0.00 70 1022.4
20260903133954 81 211 1.0 2.0 0.00 0.00 0.00 70 1022.4
20260903133854 81 211 1.0 2.0 0.00 0.00 0.00 70 1022.3
20260903133756 81 211 1.0 3.0 0.00 0.00 0.00 70 1022.3
20260903133651 81 211 1.0 3.0 0.00 0.00 0.00 70 1022.3
20260903133555 81 211 1.0 3.0 0.00 0.00 0.00 71 1022.4
20260903133444 81 211 2.0 3.0 0.00 0.00 0.00 70 1022.3
20260903133416 81 211 2.0 4.0 0.00 0.00 0.00 70 1022.3
20260903133407 81 211 2.0 4.0 0.00 0.00 0.00 70 1022.4
20260903133145 81 211 2.0 4.0 0.00 0.00 0.00 70 1022.5
20260903133038 81 211 2.0 4.0 0.00 0.00 0.00 71 1022.4
20260903132937 81 211 2.0 4.0 0.00 0.00 0.00 71 1022.4
20260903132836 81 211 2.0 4.0 0.00 0.00 0.00 71 1022.5
20260903132737 81 211 2.0 4.0 0.00 0.00 0.00 71 1022.4
20260903132646 81 211 2.0 4.0 0.00 0.00 0.00 71 1022.4
20260903132636 81 211 2.0 4.0 0.00 0.00 0.00 71 1022.4
20260903132629 81 211 2.0 3.0 0.00 0.00 0.00 71 1022.4
20260903132610 81 211 2.0 4.0 0.00 0.00 0.00 71 1022.4
20260903132229 81 211 2.0 3.0 0.00 0.00 0.00 71 1022.5
20260903132126 80 211 2.0 3.0 0.00 0.00 0.00 71 1022.4
20260903132025 80 211 2.0 3.0 0.00 0.00 0.00 71 1022.5
20260903131929 80 211 2.0 3.0 0.00 0.00 0.00 71 1022.4
20260903131918 80 211 2.0 3.0 0.00 0.00 0.00 71 1022.4
20260903131911 80 211 2.0 3.0 0.00 0.00 0.00 71 1022.4
20260903131854 80 211 2.0 3.0 0.00 0.00 0.00 71 1022.5
20260903131517 80 211 2.0 3.0 0.00 0.00 0.00 71 1022.5
20260903131416 80 211 2.0 3.0 0.00 0.00 0.00 71 1022.5
20260903131316 80 211 2.0 3.0 0.00 0.00 0.00 71 1022.5
20260903131217 80 211 2.0 3.0 0.00 0.00 0.00 71 1022.5
20260903131153 80 211 2.0 3.0 0.00 0.00 0.00 71 1022.5
20260903131143 80 211 2.0 3.0 0.00 0.00 0.00 71 1022.5
20260903130919 80 211 2.0 3.0 0.00 0.00 0.00 71 1022.5
20260903130817 80 211 2.0 3.0 0.00 0.00 0.00 71 1022.5
20260903130720 80 211 2.0 3.0 0.00 0.00 0.00 71 1022.5
20260903130616 80 211 2.0 3.0 0.00 0.00 0.00 71 1022.5
20260903130550 80 211 2.0 3.0 0.00 0.00 0.00 71 1022.5
20260903130538 80 211 2.0 3.0 0.00 0.00 0.00 71 1022.5
20260903130313 80 211 2.0 3.0 0.00 0.00 0.00 71 1022.5
20260903130212 80 211 2.0 3.0 0.00 0.00 0.00 71 1022.5
20260903130112 80 211 2.0 3.0 0.00 0.00 0.00 71 1022.5
20260903130038 80 211 2.0 3.0 0.00 0.00 0.00 71 1022.5
20260903125939 80 211 2.0 3.0 0.00 0.00 0.00 71 1022.5
20260903125929 80 211 2.0 3.0 0.00 0.00 0.00 71 1022.5
20260903125742 80 209 2.0 3.0 0.00 0.00 0.00 71 1022.5
20260903125738 80 209 2.0 3.0 0.00 0.00 0.00 71 1022.4
20260903125729 80 211 2.0 3.0 0.00 0.00 0.00 71 1022.5
20260903125557 80 209 2.0 3.0 0.00 0.00 0.00 71 1022.4
20260903125552 80 209 2.0 3.0 0.00 0.00 0.00 71 1022.5
20260903125538 80 209 2.0 3.0 0.00 0.00 0.00 71 1022.4
20260903125349 80 209 2.0 3.0 0.00 0.00 0.00 71 1022.5
20260903125002 80 209 2.0 4.0 0.00 0.00 0.00 71 1022.4
20260903124904 80 209 2.0 4.0 0.00 0.00 0.00 71 1022.4
20260903124803 80 209 2.0 4.0 0.00 0.00 0.00 71 1022.4
20260903124704 80 209 2.0 4.0 0.00 0.00 0.00 71 1022.3
20260903124603 80 209 2.0 4.0 0.00 0.00 0.00 71 1022.4
20260903124503 80 209 2.0 4.0 0.00 0.00 0.00 71 1022.3
20260903124400 80 209 2.0 4.0 0.00 0.00 0.00 71 1022.4
20260903124301 80 209 2.0 4.0 0.00 0.00 0.00 71 1022.4
20260903124158 80 209 2.0 4.0 0.00 0.00 0.00 71 1022.4
20260903124130 80 209 2.0 3.0 0.00 0.00 0.00 71 1022.4
20260903124118 80 209 2.0 4.0 0.00 0.00 0.00 71 1022.4
20260903123925 80 209 2.0 3.0 0.00 0.00 0.00 71 1022.4
20260903123910 80 209 2.0 3.0 0.00 0.00 0.00 71 1022.4
20260903123729 80 209 2.0 3.0 0.00 0.00 0.00 71 1022.4
20260903123717 80 209 2.0 3.0 0.00 0.00 0.00 71 1022.4
20260903123446 80 209 2.0 3.0 0.00 0.00 0.00 71 1022.4
20260903123346 80 209 2.0 3.0 0.00 0.00 0.00 71 1022.3
20260903123248 80 209 2.0 3.0 0.00 0.00 0.00 71 1022.4
20260903123146 80 209 2.0 3.0 0.00 0.00 0.00 71 1022.4
20260903123046 80 209 2.0 3.0 0.00 0.00 0.00 71 1022.4
20260903122943 80 209 2.0 3.0 0.00 0.00 0.00 71 1022.3
20260903122840 80 209 2.0 3.0 0.00 0.00 0.00 71 1022.3
20260903122740 79 209 2.0 3.0 0.00 0.00 0.00 71 1022.4
20260903122638 79 209 2.0 3.0 0.00 0.00 0.00 71 1022.4
20260903122538 79 209 2.0 3.0 0.00 0.00 0.00 71 1022.3
20260903122436 79 209 2.0 3.0 0.00 0.00 0.00 72 1022.3
20260903122336 79 209 2.0 3.0 0.00 0.00 0.00 71 1022.3
20260903122236 79 209 2.0 3.0 0.00 0.00 0.00 72 1022.3
20260903122137 79 209 2.0 3.0 0.00 0.00 0.00 72 1022.3
20260903122036 79 209 2.0 3.0 0.00 0.00 0.00 71 1022.4
20260903121935 79 209 2.0 3.0 0.00 0.00 0.00 71 1022.3
20260903121835 79 209 2.0 3.0 0.00 0.00 0.00 72 1022.4
20260903121736 79 209 2.0 3.0 0.00 0.00 0.00 72 1022.4
20260903121709 79 209 2.0 3.0 0.00 0.00 0.00 72 1022.4
20260903121659 79 209 2.0 3.0 0.00 0.00 0.00 72 1022.3
20260903121435 79 209 2.0 3.0 0.00 0.00 0.00 71 1022.3
20260903121331 79 209 2.0 3.0 0.00 0.00 0.00 71 1022.3
20260903121237 79 209 2.0 3.0 0.00 0.00 0.00 71 1022.3
20260903121133 79 204 2.0 3.0 0.00 0.00 0.00 72 1022.3
20260903121032 79 204 2.0 3.0 0.00 0.00 0.00 72 1022.3
20260903120932 79 204 2.0 3.0 0.00 0.00 0.00 71 1022.2
20260903120904 79 199 2.0 3.0 0.00 0.00 0.00 71 1022.2
20260903120851 79 199 2.0 3.0 0.00 0.00 0.00 71 1022.2
20260903120628 79 199 2.0 3.0 0.00 0.00 0.00 71 1022.2
20260903120528 79 197 2.0 3.0 0.00 0.00 0.00 71 1022.2
20260903120501 79 196 2.0 4.0 0.00 0.00 0.00 71 1022.2
20260903120451 79 197 2.0 3.0 0.00 0.00 0.00 71 1022.2
20260903120230 79 196 2.0 4.0 0.00 0.00 0.00 71 1022.3
20260903120127 79 196 2.0 4.0 0.00 0.00 0.00 71 1022.2
20260903120041 79 196 2.0 4.0 0.00 0.00 0.00 71 1022.2
20260903120030 79 196 2.0 4.0 0.00 0.00 0.00 71 1022.2
20260903120005 79 196 2.0 4.0 0.00 0.00 0.00 71 1022.2
20260903115837 79 196 2.0 4.0 0.00 0.00 0.00 71 1022.2
20260903115815 79 196 2.0 4.0 0.00 0.00 0.00 71 1022.2
20260903115653 79 196 2.0 4.0 0.00 0.00 0.00 71 1022.2
20260903115429 79 196 2.0 4.0 0.00 0.00 0.00 71 1022.2
20260903115324 79 193 2.0 3.0 0.00 0.00 0.00 71 1022.2
20260903115226 79 193 2.0 3.0 0.00 0.00 0.00 71 1022.2
20260903115126 79 193 2.0 3.0 0.00 0.00 0.00 71 1022.2
20260903115023 79 193 2.0 3.0 0.00 0.00 0.00 71 1022.1
20260903114923 79 193 2.0 3.0 0.00 0.00 0.00 71 1022.2
20260903114824 79 193 2.0 3.0 0.00 0.00 0.00 71 1022.1
20260903114724 79 192 1.0 3.0 0.00 0.00 0.00 71 1022.1
20260903114621 79 192 1.0 3.0 0.00 0.00 0.00 71 1022.1
20260903114521 79 192 1.0 3.0 0.00 0.00 0.00 71 1022.1
20260903114420 79 192 1.0 3.0 0.00 0.00 0.00 71 1022.1
20260903114355 79 192 1.0 3.0 0.00 0.00 0.00 71 1022.0
20260903114344 79 192 1.0 3.0 0.00 0.00 0.00 71 1022.1
20260903114121 79 192 1.0 2.0 0.00 0.00 0.00 71 1022.0
20260903114019 79 192 1.0 2.0 0.00 0.00 0.00 71 1022.1
20260903113919 79 192 1.0 2.0 0.00 0.00 0.00 71 1022.1
20260903113821 79 192 1.0 2.0 0.00 0.00 0.00 71 1022.1
20260903113720 79 192 1.0 3.0 0.00 0.00 0.00 71 1022.1
20260903113659 79 192 1.0 3.0 0.00 0.00 0.00 71 1022.0
20260903113647 79 192 1.0 3.0 0.00 0.00 0.00 71 1022.0
20260903113421 79 192 1.0 3.0 0.00 0.00 0.00 71 1022.0
20260903113320 79 192 1.0 3.0 0.00 0.00 0.00 71 1022.0
20260903113235 79 192 1.0 3.0 0.00 0.00 0.00 71 1022.0
20260903113125 79 192 1.0 3.0 0.00 0.00 0.00 71 1022.0
20260903113041 79 192 1.0 3.0 0.00 0.00 0.00 71 1022.0
20260903112921 79 192 1.0 3.0 0.00 0.00 0.00 71 1022.0
20260903112820 79 192 1.0 3.0 0.00 0.00 0.00 71 1021.9
20260903112804 79 191 0.0 2.0 0.00 0.00 0.00 71 1021.9
20260903112744 79 191 0.0 2.0 0.00 0.00 0.00 71 1022.0
20260903112521 79 192 0.0 3.0 0.00 0.00 0.00 71 1022.0
20260903112422 79 192 0.0 3.0 0.00 0.00 0.00 71 1021.9
20260903112319 79 192 0.0 3.0 0.00 0.00 0.00 71 1021.9
20260903112233 79 192 0.0 3.0 0.00 0.00 0.00 71 1022.0
20260903112123 79 192 1.0 3.0 0.00 0.00 0.00 71 1021.9
20260903112022 79 192 0.0 3.0 0.00 0.00 0.00 71 1021.9
20260903111920 79 192 1.0 3.0 0.00 0.00 0.00 71 1021.9
20260903111818 79 192 1.0 3.0 0.00 0.00 0.00 71 1021.9
20260903111717 79 192 0.0 3.0 0.00 0.00 0.00 71 1021.9
20260903111618 79 192 0.0 3.0 0.00 0.00 0.00 71 1021.9
20260903111518 79 203 1.0 3.0 0.00 0.00 0.00 71 1021.9
20260903111425 79 203 1.0 3.0 0.00 0.00 0.00 71 1021.9
20260903111313 79 203 1.0 3.0 0.00 0.00 0.00 71 1021.9
20260903111216 79 203 1.0 3.0 0.00 0.00 0.00 71 1021.8
20260903111118 79 204 0.0 3.0 0.00 0.00 0.00 71 1021.8
20260903111021 79 178 1.0 3.0 0.00 0.00 0.00 71 1021.8
20260903110911 79 178 1.0 3.0 0.00 0.00 0.00 71 1021.8
20260903110813 79 178 1.0 3.0 0.00 0.00 0.00 71 1021.8
20260903110712 79 178 1.0 3.0 0.00 0.00 0.00 71 1021.7
20260903110648 79 178 1.0 3.0 0.00 0.00 0.00 71 1021.8
20260903110633 79 178 1.0 3.0 0.00 0.00 0.00 71 1021.8
20260903110411 79 217 1.0 4.0 0.00 0.00 0.00 71 1021.8
20260903110313 79 217 1.0 4.0 0.00 0.00 0.00 71 1021.8
20260903110212 79 217 1.0 4.0 0.00 0.00 0.00 71 1021.7
20260903110113 79 217 1.0 4.0 0.00 0.00 0.00 71 1021.8
20260903110044 79 217 1.0 4.0 0.00 0.00 0.00 71 1021.8
20260903110034 79 217 1.0 4.0 0.00 0.00 0.00 71 1021.8
20260903105811 79 217 1.0 4.0 0.00 0.00 0.00 71 1021.7
20260903105711 79 217 1.0 4.0 0.00 0.00 0.00 72 1021.7
20260903105613 79 223 1.0 4.0 0.00 0.00 0.00 71 1021.7
20260903105512 79 225 1.0 4.0 0.00 0.00 0.00 72 1021.7
20260903105412 79 267 1.0 4.0 0.00 0.00 0.00 72 1021.5
20260903105311 78 234 1.0 4.0 0.00 0.00 0.00 72 1021.5
20260903105209 78 142 1.0 4.0 0.00 0.00 0.00 72 1021.7
20260903105112 78 141 1.0 4.0 0.00 0.00 0.00 72 1021.5
20260903105011 78 142 1.0 4.0 0.00 0.00 0.00 72 1021.5
20260903104914 78 162 1.0 4.0 0.00 0.00 0.00 72 1021.7
20260903104907 78 184 1.0 3.0 0.00 0.00 0.00 73 1021.5
20260903104903 78 138 1.0 4.0 0.00 0.00 0.00 72 1021.5
20260903104843 78 201 1.0 4.0 0.00 0.00 0.00 73 1021.5
20260903104657 78 138 1.0 4.0 0.00 0.00 0.00 72 1021.7
20260903104541 78 113 1.0 3.0 0.00 0.00 0.00 73 1021.5
20260903104537 78 79 1.0 3.0 0.00 0.00 0.00 73 1021.4
20260903104520 78 180 1.0 4.0 0.00 0.00 0.00 73 1021.5
20260903104503 78 94 1.0 4.0 0.00 0.00 0.00 73 1021.5
20260903103956 78 74 1.0 3.0 0.00 0.00 0.00 73 1021.4
20260903103857 78 74 1.0 3.0 0.00 0.00 0.00 73 1021.4
20260903103755 78 207 1.0 3.0 0.00 0.00 0.00 73 1021.4
20260903103649 78 207 1.0 3.0 0.00 0.00 0.00 73 1021.4
20260903103551 78 269 1.0 3.0 0.00 0.00 0.00 73 1021.5
20260903103450 78 269 1.0 3.0 0.00 0.00 0.00 73 1021.4
20260903103347 78 148 1.0 3.0 0.00 0.00 0.00 73 1021.3
20260903103247 78 148 1.0 3.0 0.00 0.00 0.00 73 1021.4
20260903103151 78 148 0.0 3.0 0.00 0.00 0.00 73 1021.3
20260903103122 78 153 0.0 3.0 0.00 0.00 0.00 73 1021.3
20260903103111 78 154 0.0 3.0 0.00 0.00 0.00 73 1021.4
20260903102848 78 163 1.0 2.0 0.00 0.00 0.00 73 1021.4
20260903102748 79 163 1.0 2.0 0.00 0.00 0.00 73 1021.4
20260903102644 79 159 1.0 2.0 0.00 0.00 0.00 73 1021.4
20260903102543 79 159 1.0 2.0 0.00 0.00 0.00 73 1021.4
20260903102443 79 159 1.0 2.0 0.00 0.00 0.00 73 1021.4
20260903102339 79 159 1.0 2.0 0.00 0.00 0.00 72 1021.3
20260903102241 79 188 1.0 4.0 0.00 0.00 0.00 73 1021.3
20260903102139 78 188 1.0 4.0 0.00 0.00 0.00 73 1021.3
20260903102048 78 188 1.0 5.0 0.00 0.00 0.00 73 1021.3
20260903101938 78 179 1.0 5.0 0.00 0.00 0.00 73 1021.3
20260903101837 78 176 1.0 5.0 0.00 0.00 0.00 73 1021.3
20260903101741 78 176 1.0 5.0 0.00 0.00 0.00 73 1021.3
20260903101638 78 175 1.0 5.0 0.00 0.00 0.00 73 1021.3
20260903101537 78 258 1.0 5.0 0.00 0.00 0.00 73 1021.3
20260903101437 78 162 1.0 5.0 0.00 0.00 0.00 73 1021.3
20260903101334 78 174 1.0 5.0 0.00 0.00 0.00 73 1021.3
20260903101233 78 186 1.0 5.0 0.00 0.00 0.00 73 1021.3
20260903101133 78 199 1.0 6.0 0.00 0.00 0.00 73 1021.3
20260903101030 78 165 1.0 6.0 0.00 0.00 0.00 73 1021.3
20260903100923 78 179 1.0 6.0 0.00 0.00 0.00 73 1021.3
20260903100901 78 98 1.0 6.0 0.00 0.00 0.00 73 1021.5
20260903100849 78 182 1.0 6.0 0.00 0.00 0.00 73 1021.4
20260903100624 78 98 1.0 6.0 0.00 0.00 0.00 73 1021.4
20260903100523 78 344 1.0 6.0 0.00 0.00 0.00 73 1021.3
20260903100452 78 78 1.0 6.0 0.00 0.00 0.00 73 1021.3
20260903100439 78 78 1.0 6.0 0.00 0.00 0.00 73 1021.3
20260903100218 78 167 1.0 6.0 0.00 0.00 0.00 74 1021.3
20260903100117 78 182 1.0 6.0 0.00 0.00 0.00 74 1021.4
20260903100017 78 159 1.0 6.0 0.00 0.00 0.00 74 1021.4
20260903095917 78 159 1.0 6.0 0.00 0.00 0.00 74 1021.3
20260903095848 78 149 1.0 6.0 0.00 0.00 0.00 74 1021.4
20260903095838 78 150 1.0 6.0 0.00 0.00 0.00 74 1021.3
20260903095618 78 149 1.0 6.0 0.00 0.00 0.00 74 1021.4
20260903095553 78 149 1.0 6.0 0.00 0.00 0.00 74 1021.3
20260903095541 78 149 1.0 6.0 0.00 0.00 0.00 74 1021.4
20260903095320 78 140 1.0 5.0 0.00 0.00 0.00 74 1021.3
20260903095219 78 192 1.0 5.0 0.00 0.00 0.00 74 1021.3
20260903095118 78 227 1.0 5.0 0.00 0.00 0.00 74 1021.3
20260903095048 78 205 1.0 5.0 0.00 0.00 0.00 74 1021.3
20260903095042 78 145 1.0 4.0 0.00 0.00 0.00 74 1021.2
20260903095028 78 196 1.0 5.0 0.00 0.00 0.00 74 1021.3
20260903095007 78 205 1.0 5.0 0.00 0.00 0.00 74 1021.2
20260903094618 78 201 1.0 4.0 0.00 0.00 0.00 74 1021.3
20260903094553 78 189 1.0 4.0 0.00 0.00 0.00 74 1021.3
20260903094538 78 188 1.0 4.0 0.00 0.00 0.00 74 1021.3
20260903094320 78 202 1.0 4.0 0.00 0.00 0.00 74 1021.3
20260903094231 78 173 1.0 2.0 0.00 0.00 0.00 74 1021.3
20260903094212 78 207 1.0 4.0 0.00 0.00 0.00 74 1021.3
20260903094153 78 209 1.0 4.0 0.00 0.00 0.00 74 1021.3
20260903093917 78 144 1.0 2.0 0.00 0.00 0.00 74 1021.3
20260903093813 78 144 1.0 2.0 0.00 0.00 0.00 74 1021.3
20260903093707 78 144 0.0 2.0 0.00 0.00 0.00 74 1021.3
20260903093609 78 144 0.0 2.0 0.00 0.00 0.00 74 1021.3
20260903093509 78 143 1.0 2.0 0.00 0.00 0.00 74 1021.4
20260903093405 78 143 1.0 4.0 0.00 0.00 0.00 74 1021.4
20260903093332 78 143 1.0 4.0 0.00 0.00 0.00 74 1021.3
20260903093204 78 143 1.0 4.0 0.00 0.00 0.00 74 1021.3
20260903093100 78 143 1.0 4.0 0.00 0.00 0.00 74 1021.3
20260903092958 78 141 1.0 4.0 0.00 0.00 0.00 74 1021.3
20260903092901 78 141 1.0 4.0 0.00 0.00 0.00 74 1021.3
20260903092800 78 141 1.0 4.0 0.00 0.00 0.00 74 1021.3
20260903092656 78 155 1.0 4.0 0.00 0.00 0.00 74 1021.3
20260903092629 78 141 1.0 3.0 0.00 0.00 0.00 74 1021.2
20260903092622 78 141 1.0 3.0 0.00 0.00 0.00 74 1021.3
20260903092604 78 155 1.0 4.0 0.00 0.00 0.00 74 1021.3
20260903092540 78 169 1.0 4.0 0.00 0.00 0.00 74 1021.3
20260903092458 78 163 1.0 3.0 0.00 0.00 0.00 74 1021.3
20260903092047 78 141 1.0 4.0 0.00 0.00 0.00 74 1021.2
20260903092035 78 136 1.0 4.0 0.00 0.00 0.00 74 1021.3
20260903092019 78 142 1.0 4.0 0.00 0.00 0.00 74 1021.3
20260903091747 78 186 1.0 4.0 0.00 0.00 0.00 74 1021.3
20260903091642 78 191 1.0 4.0 0.00 0.00 0.00 74 1021.3
20260903091541 78 191 1.0 4.0 0.00 0.00 0.00 74 1021.3
20260903091454 78 198 1.0 4.0 0.00 0.00 0.00 74 1021.3
20260903091343 78 178 1.0 4.0 0.00 0.00 0.00 74 1021.3
20260903091242 78 178 1.0 4.0 0.00 0.00 0.00 74 1021.3
20260903091143 78 178 1.0 4.0 0.00 0.00 0.00 74 1021.3
20260903091041 78 177 1.0 9.0 0.00 0.00 0.00 74 1021.4
20260903090939 78 244 1.0 9.0 0.00 0.00 0.00 74 1021.3
20260903090840 78 244 1.0 9.0 0.00 0.00 0.00 74 1021.3
20260903090738 78 209 1.0 9.0 0.00 0.00 0.00 74 1021.3
20260903090638 78 169 1.0 9.0 0.00 0.00 0.00 74 1021.4
20260903090538 78 169 1.0 9.0 0.00 0.00 0.00 74 1021.3
20260903090437 78 162 1.0 9.0 0.00 0.00 0.00 74 1021.4
20260903090339 78 162 1.0 9.0 0.00 0.00 0.00 74 1021.4
20260903090237 78 162 1.0 9.0 0.00 0.00 0.00 74 1021.3
20260903090137 78 165 1.0 9.0 0.00 0.00 0.00 74 1021.4
20260903090037 78 82 1.0 4.0 0.00 0.00 0.00 74 1021.4
20260903085935 78 80 1.0 4.0 0.00 0.00 0.00 74 1021.4
20260903085834 78 213 1.0 4.0 0.00 0.00 0.00 74 1021.4
20260903085728 78 93 1.0 4.0 0.00 0.00 0.00 74 1021.4
20260903085626 78 93 1.0 5.0 0.00 0.00 0.00 74 1021.4
20260903085604 78 91 1.0 5.0 0.00 0.00 0.00 74 1021.4
20260903085553 78 91 1.0 5.0 0.00 0.00 0.00 74 1021.5
20260903085327 78 169 1.0 7.0 0.00 0.00 0.00 74 1021.3
20260903085223 78 188 1.0 7.0 0.00 0.00 0.00 74 1021.4
20260903085119 78 188 1.0 7.0 0.00 0.00 0.00 74 1021.4
20260903085021 78 188 1.0 7.0 0.00 0.00 0.00 74 1021.4
20260903084924 78 220 1.0 7.0 0.00 0.00 0.00 74 1021.4
20260903084820 78 196 1.0 7.0 0.00 0.00 0.00 74 1021.4
20260903084744 78 172 1.0 7.0 0.00 0.00 0.00 74 1021.4
20260903084731 78 169 1.0 7.0 0.00 0.00 0.00 74 1021.4
20260903084551 78 145 1.0 5.0 0.00 0.00 0.00 74 1021.4
20260903084545 78 144 1.0 5.0 0.00 0.00 0.00 74 1021.5
20260903084539 78 165 1.0 5.0 0.00 0.00 0.00 74 1021.5
20260903084524 78 170 1.0 7.0 0.00 0.00 0.00 74 1021.5
20260903084505 78 51 1.0 5.0 0.00 0.00 0.00 74 1021.4
20260903084000 78 231 2.0 5.0 0.00 0.00 0.00 74 1021.5
20260903083900 78 231 1.0 5.0 0.00 0.00 0.00 74 1021.4
20260903083800 78 161 2.0 5.0 0.00 0.00 0.00 74 1021.4
20260903083700 78 148 2.0 5.0 0.00 0.00 0.00 74 1021.4
20260903083557 79 148 2.0 5.0 0.00 0.00 0.00 74 1021.4
20260903083456 79 148 2.0 5.0 0.00 0.00 0.00 74 1021.4
20260903083421 79 169 2.0 7.0 0.00 0.00 0.00 74 1021.4
20260903083415 79 198 2.0 7.0 0.00 0.00 0.00 74 1021.3
20260903083402 79 211 2.0 7.0 0.00 0.00 0.00 74 1021.4
20260903083338 79 189 2.0 7.0 0.00 0.00 0.00 74 1021.4
20260903082948 79 128 2.0 7.0 0.00 0.00 0.00 74 1021.4
20260903082846 79 215 2.0 7.0 0.00 0.00 0.00 74 1021.4
20260903082807 79 182 1.0 7.0 0.00 0.00 0.00 74 1021.3
20260903082759 79 182 1.0 7.0 0.00 0.00 0.00 74 1021.4
20260903082537 79 182 2.0 7.0 0.00 0.00 0.00 74 1021.3
20260903082438 79 171 2.0 6.0 0.00 0.00 0.00 74 1021.5
20260903082339 79 219 1.0 6.0 0.00 0.00 0.00 74 1021.4
20260903082239 79 223 1.0 6.0 0.00 0.00 0.00 74 1021.4
20260903082135 79 155 1.0 6.0 0.00 0.00 0.00 74 1021.4
20260903082037 79 152 1.0 6.0 0.00 0.00 0.00 74 1021.4
20260903081934 79 206 1.0 8.0 0.00 0.00 0.00 74 1021.5
20260903081834 79 204 1.0 8.0 0.00 0.00 0.00 74 1021.4
20260903081732 79 209 2.0 8.0 0.00 0.00 0.00 74 1021.4
20260903081641 79 153 1.0 8.0 0.00 0.00 0.00 74 1021.3
20260903081628 79 218 2.0 8.0 0.00 0.00 0.00 74 1021.4
20260903081428 79 173 1.0 8.0 0.00 0.00 0.00 74 1021.3
20260903081332 79 173 1.0 8.0 0.00 0.00 0.00 74 1021.3
20260903081232 79 156 1.0 8.0 0.00 0.00 0.00 73 1021.4
20260903081127 79 140 1.0 8.0 0.00 0.00 0.00 73 1021.4
20260903081025 79 192 1.0 8.0 0.00 0.00 0.00 74 1021.3
20260903080928 79 195 1.0 4.0 0.00 0.00 0.00 73 1021.3
20260903080822 79 192 1.0 5.0 0.00 0.00 0.00 73 1021.4
20260903080721 79 212 1.0 5.0 0.00 0.00 0.00 73 1021.4
20260903080622 79 126 1.0 5.0 0.00 0.00 0.00 73 1021.3
20260903080557 79 215 1.0 5.0 0.00 0.00 0.00 73 1021.4
20260903080545 79 215 1.0 5.0 0.00 0.00 0.00 73 1021.4
20260903080331 79 215 1.0 5.0 0.00 0.00 0.00 73 1021.4
20260903080221 79 217 1.0 5.0 0.00 0.00 0.00 73 1021.3
20260903080159 79 103 1.0 5.0 0.00 0.00 0.00 72 1021.3
20260903080150 79 198 1.0 5.0 0.00 0.00 0.00 73 1021.3
20260903075921 79 208 1.0 7.0 0.00 0.00 0.00 73 1021.4